| time (UTC) | temp F | wind direction | speed MPH | gust MPH | rain 1hr in | rain 24hr in | rain mn in | humidity % | barometer mb |
| 20260503192518 | 78 | 169 | 3.0 | 9.0 | 0.00 | 0.00 | 0.00 | 49 | 1020.4 |
| 20260503192415 | 78 | 119 | 3.0 | 7.0 | 0.00 | 0.00 | 0.00 | 49 | 1020.4 |
| 20260503192316 | 78 | 70 | 3.0 | 7.0 | 0.00 | 0.00 | 0.00 | 47 | 1020.3 |
| 20260503192259 | 78 | 80 | 3.0 | 7.0 | 0.00 | 0.00 | 0.00 | 47 | 1020.3 |
| 20260503192216 | 78 | 88 | 3.0 | 7.0 | 0.00 | 0.00 | 0.00 | 49 | 1020.4 |
| 20260503192113 | 78 | 103 | 3.0 | 7.0 | 0.00 | 0.00 | 0.00 | 48 | 1020.4 |
| 20260503192012 | 78 | 132 | 3.0 | 7.0 | 0.00 | 0.00 | 0.00 | 48 | 1020.5 |
| 20260503191912 | 78 | 0 | 3.0 | 7.0 | 0.00 | 0.00 | 0.00 | 48 | 1020.5 |
| 20260503191812 | 78 | 20 | 3.0 | 7.0 | 0.00 | 0.00 | 0.00 | 48 | 1020.5 |
| 20260503191759 | 78 | 168 | 3.0 | 7.0 | 0.00 | 0.00 | 0.00 | 48 | 1020.5 |
| 20260503191713 | 78 | 131 | 3.0 | 7.0 | 0.00 | 0.00 | 0.00 | 50 | 1020.6 |
| 20260503191613 | 78 | 109 | 3.0 | 7.0 | 0.00 | 0.00 | 0.00 | 50 | 1020.5 |
| 20260503191512 | 78 | 92 | 3.0 | 7.0 | 0.00 | 0.00 | 0.00 | 50 | 1020.5 |
| 20260503191409 | 78 | 123 | 3.0 | 6.0 | 0.00 | 0.00 | 0.00 | 49 | 1020.5 |
| 20260503191305 | 78 | 57 | 3.0 | 6.0 | 0.00 | 0.00 | 0.00 | 49 | 1020.5 |
| 20260503191300 | 78 | 67 | 3.0 | 6.0 | 0.00 | 0.00 | 0.00 | 49 | 1020.5 |
| 20260503191204 | 78 | 54 | 2.0 | 7.0 | 0.00 | 0.00 | 0.00 | 48 | 1020.6 |
| 20260503191103 | 78 | 322 | 3.0 | 7.0 | 0.00 | 0.00 | 0.00 | 48 | 1020.6 |
| 20260503191003 | 78 | 96 | 3.0 | 7.0 | 0.00 | 0.00 | 0.00 | 50 | 1020.6 |
| 20260503190903 | 78 | 186 | 3.0 | 7.0 | 0.00 | 0.00 | 0.00 | 49 | 1020.6 |
| 20260503190805 | 78 | 182 | 3.0 | 7.0 | 0.00 | 0.00 | 0.00 | 49 | 1020.6 |
| 20260503190759 | 78 | 139 | 3.0 | 7.0 | 0.00 | 0.00 | 0.00 | 49 | 1020.6 |
| 20260503190704 | 78 | 216 | 2.0 | 7.0 | 0.00 | 0.00 | 0.00 | 49 | 1020.6 |
| 20260503190604 | 78 | 203 | 2.0 | 7.0 | 0.00 | 0.00 | 0.00 | 48 | 1020.6 |
| 20260503190501 | 78 | 86 | 3.0 | 7.0 | 0.00 | 0.00 | 0.00 | 48 | 1020.7 |
| 20260503190400 | 79 | 89 | 3.0 | 7.0 | 0.00 | 0.00 | 0.00 | 47 | 1020.7 |
| 20260503190301 | 79 | 200 | 3.0 | 7.0 | 0.00 | 0.00 | 0.00 | 47 | 1020.7 |
| 20260503190201 | 79 | 99 | 3.0 | 7.0 | 0.00 | 0.00 | 0.00 | 48 | 1020.7 |
| 20260503185958 | 79 | 133 | 3.0 | 6.0 | 0.00 | 0.00 | 0.00 | 44 | 1020.7 |
| 20260503185855 | 79 | 194 | 3.0 | 6.0 | 0.00 | 0.00 | 0.00 | 44 | 1020.7 |
| 20260503185759 | 79 | 120 | 3.0 | 6.0 | 0.00 | 0.00 | 0.00 | 43 | 1020.7 |
| 20260503185755 | 79 | 104 | 3.0 | 6.0 | 0.00 | 0.00 | 0.00 | 43 | 1020.7 |
| 20260503185652 | 79 | 36 | 3.0 | 6.0 | 0.00 | 0.00 | 0.00 | 43 | 1020.7 |
| 20260503185552 | 79 | 41 | 3.0 | 6.0 | 0.00 | 0.00 | 0.00 | 43 | 1020.7 |
| 20260503185446 | 79 | 53 | 3.0 | 6.0 | 0.00 | 0.00 | 0.00 | 43 | 1020.7 |
| 20260503185348 | 79 | 7 | 2.0 | 6.0 | 0.00 | 0.00 | 0.00 | 42 | 1020.8 |
| 20260503185257 | 79 | 13 | 2.0 | 6.0 | 0.00 | 0.00 | 0.00 | 46 | 1020.8 |
| 20260503185246 | 79 | 47 | 2.0 | 6.0 | 0.00 | 0.00 | 0.00 | 46 | 1020.8 |
| 20260503185143 | 79 | 23 | 2.0 | 6.0 | 0.00 | 0.00 | 0.00 | 46 | 1020.8 |
| 20260503185042 | 79 | 108 | 2.0 | 6.0 | 0.00 | 0.00 | 0.00 | 46 | 1020.8 |
| 20260503184940 | 79 | 111 | 2.0 | 6.0 | 0.00 | 0.00 | 0.00 | 45 | 1020.8 |
| 20260503184840 | 79 | 26 | 2.0 | 5.0 | 0.00 | 0.00 | 0.00 | 45 | 1020.8 |
| 20260503184753 | 79 | 104 | 2.0 | 5.0 | 0.00 | 0.00 | 0.00 | 45 | 1020.8 |
| 20260503184740 | 79 | 47 | 2.0 | 5.0 | 0.00 | 0.00 | 0.00 | 45 | 1020.8 |
| 20260503184640 | 79 | 133 | 2.0 | 5.0 | 0.00 | 0.00 | 0.00 | 44 | 1020.8 |
| 20260503184540 | 79 | 45 | 2.0 | 5.0 | 0.00 | 0.00 | 0.00 | 46 | 1020.8 |
| 20260503184440 | 79 | 31 | 2.0 | 5.0 | 0.00 | 0.00 | 0.00 | 44 | 1020.8 |
| 20260503184340 | 79 | 25 | 2.0 | 5.0 | 0.00 | 0.00 | 0.00 | 44 | 1020.8 |
| 20260503184251 | 79 | 27 | 2.0 | 7.0 | 0.00 | 0.00 | 0.00 | 43 | 1020.9 |
| 20260503184240 | 79 | 26 | 2.0 | 7.0 | 0.00 | 0.00 | 0.00 | 43 | 1020.9 |
| 20260503184139 | 79 | 26 | 3.0 | 8.0 | 0.00 | 0.00 | 0.00 | 42 | 1020.9 |
| 20260503184041 | 79 | 51 | 3.0 | 8.0 | 0.00 | 0.00 | 0.00 | 44 | 1020.9 |
| 20260503183940 | 79 | 284 | 3.0 | 8.0 | 0.00 | 0.00 | 0.00 | 45 | 1021.0 |
| 20260503183840 | 78 | 28 | 4.0 | 8.0 | 0.00 | 0.00 | 0.00 | 45 | 1021.0 |
| 20260503183750 | 78 | 96 | 4.0 | 8.0 | 0.00 | 0.00 | 0.00 | 45 | 1021.0 |
| 20260503183740 | 78 | 91 | 4.0 | 8.0 | 0.00 | 0.00 | 0.00 | 45 | 1021.0 |
| 20260503183640 | 78 | 113 | 3.0 | 8.0 | 0.00 | 0.00 | 0.00 | 45 | 1021.0 |
| 20260503183540 | 78 | 319 | 3.0 | 8.0 | 0.00 | 0.00 | 0.00 | 44 | 1021.1 |
| 20260503183440 | 78 | 66 | 4.0 | 8.0 | 0.00 | 0.00 | 0.00 | 44 | 1021.1 |
| 20260503183340 | 78 | 144 | 4.0 | 8.0 | 0.00 | 0.00 | 0.00 | 44 | 1021.1 |
| 20260503183251 | 78 | 91 | 4.0 | 8.0 | 0.00 | 0.00 | 0.00 | 43 | 1021.1 |
| 20260503183241 | 78 | 133 | 4.0 | 8.0 | 0.00 | 0.00 | 0.00 | 43 | 1021.1 |
| 20260503183138 | 78 | 102 | 3.0 | 8.0 | 0.00 | 0.00 | 0.00 | 43 | 1021.1 |
| 20260503183038 | 78 | 111 | 3.0 | 8.0 | 0.00 | 0.00 | 0.00 | 44 | 1021.1 |
| 20260503182934 | 78 | 87 | 3.0 | 8.0 | 0.00 | 0.00 | 0.00 | 44 | 1021.1 |
| 20260503182834 | 78 | 41 | 3.0 | 8.0 | 0.00 | 0.00 | 0.00 | 44 | 1021.1 |
| 20260503182751 | 78 | 334 | 4.0 | 9.0 | 0.00 | 0.00 | 0.00 | 44 | 1021.1 |
| 20260503182734 | 78 | 35 | 4.0 | 9.0 | 0.00 | 0.00 | 0.00 | 44 | 1021.1 |
| 20260503182634 | 78 | 126 | 4.0 | 9.0 | 0.00 | 0.00 | 0.00 | 45 | 1021.2 |
| 20260503182534 | 78 | 78 | 4.0 | 9.0 | 0.00 | 0.00 | 0.00 | 45 | 1021.2 |
| 20260503182428 | 78 | 63 | 4.0 | 9.0 | 0.00 | 0.00 | 0.00 | 45 | 1021.2 |
| 20260503182328 | 78 | 32 | 3.0 | 9.0 | 0.00 | 0.00 | 0.00 | 45 | 1021.2 |
| 20260503182251 | 78 | 63 | 3.0 | 9.0 | 0.00 | 0.00 | 0.00 | 43 | 1021.2 |
| 20260503182229 | 78 | 28 | 3.0 | 9.0 | 0.00 | 0.00 | 0.00 | 43 | 1021.2 |
| 20260503182125 | 79 | 43 | 3.0 | 9.0 | 0.00 | 0.00 | 0.00 | 42 | 1021.2 |
| 20260503182026 | 79 | 3 | 3.0 | 9.0 | 0.00 | 0.00 | 0.00 | 42 | 1021.2 |
| 20260503181925 | 79 | 54 | 3.0 | 9.0 | 0.00 | 0.00 | 0.00 | 42 | 1021.2 |
| 20260503181826 | 79 | 25 | 3.0 | 9.0 | 0.00 | 0.00 | 0.00 | 43 | 1021.2 |
| 20260503181751 | 79 | 46 | 3.0 | 9.0 | 0.00 | 0.00 | 0.00 | 43 | 1021.2 |
| 20260503181723 | 79 | 9 | 3.0 | 9.0 | 0.00 | 0.00 | 0.00 | 41 | 1021.3 |
| 20260503181620 | 79 | 21 | 3.0 | 9.0 | 0.00 | 0.00 | 0.00 | 41 | 1021.3 |
| 20260503181517 | 79 | 48 | 3.0 | 9.0 | 0.00 | 0.00 | 0.00 | 44 | 1021.4 |
| 20260503181509 | 79 | 46 | 3.0 | 9.0 | 0.00 | 0.00 | 0.00 | 42 | 1021.4 |
| 20260503181413 | 79 | 354 | 3.0 | 9.0 | 0.00 | 0.00 | 0.00 | 43 | 1021.4 |
| 20260503181351 | 79 | 7 | 3.0 | 9.0 | 0.00 | 0.00 | 0.00 | 42 | 1021.4 |
| 20260503181213 | 79 | 7 | 3.0 | 9.0 | 0.00 | 0.00 | 0.00 | 42 | 1021.4 |
| 20260503181113 | 79 | 58 | 2.0 | 7.0 | 0.00 | 0.00 | 0.00 | 42 | 1021.4 |
| 20260503181014 | 79 | 112 | 3.0 | 7.0 | 0.00 | 0.00 | 0.00 | 44 | 1021.4 |
| 20260503180910 | 79 | 44 | 2.0 | 7.0 | 0.00 | 0.00 | 0.00 | 42 | 1021.4 |
| 20260503180811 | 79 | 17 | 3.0 | 7.0 | 0.00 | 0.00 | 0.00 | 42 | 1021.4 |
| 20260503180745 | 79 | 37 | 3.0 | 7.0 | 0.00 | 0.00 | 0.00 | 42 | 1021.4 |
| 20260503180711 | 78 | 73 | 3.0 | 7.0 | 0.00 | 0.00 | 0.00 | 41 | 1021.4 |
| 20260503180610 | 78 | 101 | 3.0 | 6.0 | 0.00 | 0.00 | 0.00 | 44 | 1021.4 |
| 20260503180510 | 78 | 171 | 3.0 | 6.0 | 0.00 | 0.00 | 0.00 | 44 | 1021.4 |
| 20260503180410 | 78 | 301 | 3.0 | 6.0 | 0.00 | 0.00 | 0.00 | 41 | 1021.4 |
| 20260503180311 | 78 | 128 | 3.0 | 6.0 | 0.00 | 0.00 | 0.00 | 42 | 1021.4 |
| 20260503180246 | 78 | 6 | 3.0 | 6.0 | 0.00 | 0.00 | 0.00 | 42 | 1021.4 |
| 20260503180211 | 78 | 45 | 3.0 | 6.0 | 0.00 | 0.00 | 0.00 | 42 | 1021.4 |
| 20260503180111 | 78 | 49 | 3.0 | 6.0 | 0.00 | 0.00 | 0.00 | 41 | 1021.4 |
| 20260503180008 | 78 | 77 | 2.0 | 6.0 | 0.00 | 0.00 | 0.00 | 45 | 1021.4 |
| 20260503175908 | 78 | 38 | 2.0 | 6.0 | 0.00 | 0.00 | 0.00 | 44 | 1021.5 |
| 20260503175801 | 78 | 22 | 2.0 | 8.0 | 0.00 | 0.00 | 0.00 | 43 | 1021.5 |
| 20260503175745 | 78 | 66 | 3.0 | 8.0 | 0.00 | 0.00 | 0.00 | 43 | 1021.5 |
| 20260503175702 | 78 | 357 | 3.0 | 8.0 | 0.00 | 0.00 | 0.00 | 44 | 1021.5 |
| 20260503175602 | 78 | 32 | 3.0 | 8.0 | 0.00 | 0.00 | 0.00 | 44 | 1021.5 |
| 20260503175502 | 78 | 5 | 3.0 | 8.0 | 0.00 | 0.00 | 0.00 | 45 | 1021.5 |
| 20260503175401 | 78 | 23 | 3.0 | 8.0 | 0.00 | 0.00 | 0.00 | 45 | 1021.5 |
| 20260503175301 | 78 | 90 | 3.0 | 8.0 | 0.00 | 0.00 | 0.00 | 44 | 1021.5 |
| 20260503175245 | 78 | 95 | 3.0 | 8.0 | 0.00 | 0.00 | 0.00 | 44 | 1021.5 |
| 20260503175158 | 78 | 46 | 3.0 | 8.0 | 0.00 | 0.00 | 0.00 | 43 | 1021.6 |
| 20260503175055 | 78 | 46 | 3.0 | 8.0 | 0.00 | 0.00 | 0.00 | 43 | 1021.6 |
| 20260503174952 | 78 | 10 | 3.0 | 8.0 | 0.00 | 0.00 | 0.00 | 43 | 1021.6 |
| 20260503174849 | 79 | 65 | 3.0 | 8.0 | 0.00 | 0.00 | 0.00 | 43 | 1021.6 |
| 20260503174750 | 79 | 5 | 2.0 | 8.0 | 0.00 | 0.00 | 0.00 | 44 | 1021.7 |
| 20260503174742 | 79 | 27 | 2.0 | 7.0 | 0.00 | 0.00 | 0.00 | 44 | 1021.7 |
| 20260503174647 | 79 | 46 | 2.0 | 7.0 | 0.00 | 0.00 | 0.00 | 44 | 1021.7 |
| 20260503174547 | 79 | 306 | 2.0 | 5.0 | 0.00 | 0.00 | 0.00 | 43 | 1021.7 |
| 20260503174444 | 79 | 252 | 2.0 | 5.0 | 0.00 | 0.00 | 0.00 | 41 | 1021.7 |
| 20260503174344 | 79 | 1 | 2.0 | 5.0 | 0.00 | 0.00 | 0.00 | 41 | 1021.7 |
| 20260503174244 | 79 | 162 | 2.0 | 5.0 | 0.00 | 0.00 | 0.00 | 42 | 1021.7 |
| 20260503174141 | 79 | 49 | 2.0 | 5.0 | 0.00 | 0.00 | 0.00 | 44 | 1021.8 |
| 20260503174038 | 78 | 36 | 3.0 | 6.0 | 0.00 | 0.00 | 0.00 | 45 | 1021.8 |
| 20260503173938 | 78 | 137 | 3.0 | 6.0 | 0.00 | 0.00 | 0.00 | 44 | 1021.8 |
| 20260503173835 | 78 | 83 | 3.0 | 7.0 | 0.00 | 0.00 | 0.00 | 44 | 1021.8 |
| 20260503173739 | 78 | 248 | 3.0 | 7.0 | 0.00 | 0.00 | 0.00 | 44 | 1021.8 |
| 20260503173735 | 78 | 298 | 3.0 | 7.0 | 0.00 | 0.00 | 0.00 | 44 | 1021.8 |
| 20260503173635 | 78 | 1 | 4.0 | 8.0 | 0.00 | 0.00 | 0.00 | 44 | 1021.8 |
| 20260503173529 | 78 | 30 | 4.0 | 8.0 | 0.00 | 0.00 | 0.00 | 42 | 1021.9 |
| 20260503173429 | 78 | 46 | 4.0 | 11.0 | 0.00 | 0.00 | 0.00 | 42 | 1021.9 |
| 20260503173329 | 78 | 48 | 4.0 | 11.0 | 0.00 | 0.00 | 0.00 | 43 | 1021.9 |
| 20260503173237 | 78 | 58 | 4.0 | 11.0 | 0.00 | 0.00 | 0.00 | 43 | 1021.9 |
| 20260503173227 | 78 | 63 | 4.0 | 11.0 | 0.00 | 0.00 | 0.00 | 43 | 1021.9 |
| 20260503173126 | 78 | 69 | 4.0 | 11.0 | 0.00 | 0.00 | 0.00 | 43 | 1021.9 |
| 20260503173026 | 78 | 250 | 3.0 | 11.0 | 0.00 | 0.00 | 0.00 | 43 | 1022.0 |
| 20260503172926 | 78 | 84 | 3.0 | 11.0 | 0.00 | 0.00 | 0.00 | 42 | 1022.0 |
| 20260503172827 | 78 | 296 | 3.0 | 11.0 | 0.00 | 0.00 | 0.00 | 41 | 1022.0 |
| 20260503172737 | 78 | 50 | 3.0 | 11.0 | 0.00 | 0.00 | 0.00 | 41 | 1022.0 |
| 20260503172727 | 79 | 21 | 3.0 | 11.0 | 0.00 | 0.00 | 0.00 | 44 | 1022.0 |
| 20260503172627 | 79 | 54 | 3.0 | 11.0 | 0.00 | 0.00 | 0.00 | 43 | 1022.0 |
| 20260503172531 | 78 | 14 | 2.0 | 11.0 | 0.00 | 0.00 | 0.00 | 47 | 1022.1 |
| 20260503172455 | 78 | 337 | 2.0 | 6.0 | 0.00 | 0.00 | 0.00 | 47 | 1022.0 |
| 20260503172427 | 78 | 0 | 2.0 | 6.0 | 0.00 | 0.00 | 0.00 | 48 | 1022.1 |
| 20260503172342 | 78 | 343 | 2.0 | 6.0 | 0.00 | 0.00 | 0.00 | 47 | 1022.0 |
| 20260503172226 | 78 | 324 | 2.0 | 6.0 | 0.00 | 0.00 | 0.00 | 46 | 1022.1 |
| 20260503172126 | 78 | 8 | 2.0 | 6.0 | 0.00 | 0.00 | 0.00 | 44 | 1022.1 |
| 20260503172027 | 78 | 347 | 2.0 | 6.0 | 0.00 | 0.00 | 0.00 | 44 | 1022.1 |
| 20260503171926 | 78 | 290 | 3.0 | 7.0 | 0.00 | 0.00 | 0.00 | 44 | 1022.1 |
| 20260503171823 | 78 | 20 | 3.0 | 7.0 | 0.00 | 0.00 | 0.00 | 44 | 1022.1 |
| 20260503171737 | 78 | 312 | 3.0 | 7.0 | 0.00 | 0.00 | 0.00 | 44 | 1022.1 |
| 20260503171723 | 78 | 20 | 3.0 | 7.0 | 0.00 | 0.00 | 0.00 | 44 | 1022.1 |
| 20260503171620 | 78 | 37 | 3.0 | 7.0 | 0.00 | 0.00 | 0.00 | 45 | 1022.1 |
| 20260503171520 | 78 | 94 | 3.0 | 7.0 | 0.00 | 0.00 | 0.00 | 44 | 1022.1 |
| 20260503171420 | 78 | 331 | 3.0 | 7.0 | 0.00 | 0.00 | 0.00 | 46 | 1022.1 |
| 20260503171320 | 78 | 114 | 3.0 | 7.0 | 0.00 | 0.00 | 0.00 | 46 | 1022.1 |
| 20260503171234 | 78 | 42 | 3.0 | 7.0 | 0.00 | 0.00 | 0.00 | 46 | 1022.1 |
| 20260503171221 | 78 | 22 | 3.0 | 7.0 | 0.00 | 0.00 | 0.00 | 44 | 1022.1 |
| 20260503171121 | 78 | 54 | 3.0 | 7.0 | 0.00 | 0.00 | 0.00 | 44 | 1022.2 |
| 20260503171021 | 78 | 110 | 3.0 | 7.0 | 0.00 | 0.00 | 0.00 | 42 | 1022.1 |
| 20260503170921 | 78 | 102 | 3.0 | 7.0 | 0.00 | 0.00 | 0.00 | 45 | 1022.1 |
| 20260503170820 | 78 | 77 | 3.0 | 6.0 | 0.00 | 0.00 | 0.00 | 45 | 1022.1 |
| 20260503170734 | 78 | 18 | 2.0 | 6.0 | 0.00 | 0.00 | 0.00 | 45 | 1022.1 |
| 20260503170717 | 78 | 50 | 2.0 | 7.0 | 0.00 | 0.00 | 0.00 | 45 | 1022.1 |
| 20260503170617 | 78 | 109 | 3.0 | 7.0 | 0.00 | 0.00 | 0.00 | 46 | 1022.1 |
| 20260503170517 | 78 | 356 | 3.0 | 7.0 | 0.00 | 0.00 | 0.00 | 48 | 1022.1 |
| 20260503170414 | 78 | 47 | 2.0 | 7.0 | 0.00 | 0.00 | 0.00 | 46 | 1022.1 |
| 20260503170315 | 78 | 359 | 2.0 | 7.0 | 0.00 | 0.00 | 0.00 | 45 | 1022.2 |
| 20260503170234 | 78 | 327 | 2.0 | 7.0 | 0.00 | 0.00 | 0.00 | 45 | 1022.2 |
| 20260503170215 | 78 | 356 | 2.0 | 7.0 | 0.00 | 0.00 | 0.00 | 45 | 1022.2 |
| 20260503170112 | 78 | 340 | 2.0 | 7.0 | 0.00 | 0.00 | 0.00 | 45 | 1022.2 |
| 20260503160215 | 77 | 124 | 3.0 | 7.0 | 0.00 | 0.00 | 0.00 | 50 | 1022.4 |
| 20260503160116 | 77 | 91 | 3.0 | 7.0 | 0.00 | 0.00 | 0.00 | 49 | 1022.3 |
| 20260503150919 | 75 | 52 | 3.0 | 6.0 | 0.00 | 0.00 | 0.00 | 51 | 1022.0 |
| 20260503150819 | 75 | 31 | 3.0 | 6.0 | 0.00 | 0.00 | 0.00 | 51 | 1022.0 |
| 20260503150719 | 75 | 45 | 3.0 | 6.0 | 0.00 | 0.00 | 0.00 | 50 | 1022.0 |
| 20260503150708 | 75 | 351 | 3.0 | 6.0 | 0.00 | 0.00 | 0.00 | 50 | 1022.0 |
| 20260503150616 | 75 | 10 | 3.0 | 6.0 | 0.00 | 0.00 | 0.00 | 50 | 1022.0 |
| 20260503150516 | 75 | 30 | 3.0 | 6.0 | 0.00 | 0.00 | 0.00 | 49 | 1022.0 |
| 20260503150416 | 75 | 22 | 3.0 | 6.0 | 0.00 | 0.00 | 0.00 | 51 | 1022.0 |
| 20260503150317 | 75 | 59 | 3.0 | 6.0 | 0.00 | 0.00 | 0.00 | 51 | 1022.0 |
| 20260503150214 | 75 | 33 | 3.0 | 6.0 | 0.00 | 0.00 | 0.00 | 53 | 1022.0 |
| 20260503150209 | 75 | 26 | 3.0 | 6.0 | 0.00 | 0.00 | 0.00 | 53 | 1022.0 |
| 20260503150113 | 75 | 35 | 3.0 | 6.0 | 0.00 | 0.00 | 0.00 | 53 | 1022.0 |
| 20260503140304 | 71 | 0 | 1.0 | 3.0 | 0.00 | 0.00 | 0.00 | 70 | 1021.7 |
| 20260503140117 | 71 | 71 | 1.0 | 3.0 | 0.00 | 0.00 | 0.00 | 71 | 1021.7 |
| 20260503072850 | 53 | 35 | 1.0 | 2.0 | 0.00 | 0.00 | 0.00 | 98 | 1020.1 |
| 20260503072819 | 53 | 75 | 1.0 | 2.0 | 0.00 | 0.00 | 0.00 | 98 | 1020.1 |
| 20260503072750 | 53 | 30 | 1.0 | 2.0 | 0.00 | 0.00 | 0.00 | 98 | 1020.1 |
| 20260503072650 | 53 | 35 | 1.0 | 2.0 | 0.00 | 0.00 | 0.00 | 98 | 1020.1 |
| 20260503072550 | 53 | 30 | 1.0 | 2.0 | 0.00 | 0.00 | 0.00 | 98 | 1020.1 |
| 20260503072449 | 53 | 46 | 1.0 | 2.0 | 0.00 | 0.00 | 0.00 | 98 | 1020.1 |
| 20260503072346 | 53 | 47 | 1.0 | 2.0 | 0.00 | 0.00 | 0.00 | 98 | 1020.1 |
| 20260503072318 | 53 | 27 | 1.0 | 2.0 | 0.00 | 0.00 | 0.00 | 98 | 1020.1 |
| 20260503072241 | 53 | 36 | 1.0 | 2.0 | 0.00 | 0.00 | 0.00 | 98 | 1020.1 |
| 20260503072138 | 53 | 6 | 1.0 | 2.0 | 0.00 | 0.00 | 0.00 | 98 | 1020.1 |
| 20260503072038 | 53 | 36 | 1.0 | 2.0 | 0.00 | 0.00 | 0.00 | 98 | 1020.1 |
| 20260503071936 | 53 | 27 | 1.0 | 2.0 | 0.00 | 0.00 | 0.00 | 98 | 1020.1 |
| 20260503071836 | 53 | 44 | 1.0 | 2.0 | 0.00 | 0.00 | 0.00 | 98 | 1020.1 |
| 20260503071819 | 53 | 34 | 1.0 | 2.0 | 0.00 | 0.00 | 0.00 | 98 | 1020.1 |
| 20260503071736 | 53 | 40 | 1.0 | 2.0 | 0.00 | 0.00 | 0.00 | 98 | 1020.1 |
| 20260503071635 | 53 | 61 | 1.0 | 2.0 | 0.00 | 0.00 | 0.00 | 98 | 1020.1 |
| 20260503071534 | 53 | 36 | 1.0 | 2.0 | 0.00 | 0.00 | 0.00 | 98 | 1020.1 |
| 20260503071432 | 53 | 32 | 1.0 | 2.0 | 0.00 | 0.00 | 0.00 | 98 | 1020.2 |
| 20260503071332 | 53 | 17 | 1.0 | 2.0 | 0.00 | 0.00 | 0.00 | 98 | 1020.1 |
| 20260503071316 | 53 | 55 | 1.0 | 2.0 | 0.00 | 0.00 | 0.00 | 98 | 1020.1 |
| 20260503071229 | 53 | 45 | 1.0 | 2.0 | 0.00 | 0.00 | 0.00 | 98 | 1020.1 |
| 20260503071129 | 53 | 336 | 1.0 | 2.0 | 0.00 | 0.00 | 0.00 | 98 | 1020.1 |
| 20260503071029 | 53 | 43 | 1.0 | 2.0 | 0.00 | 0.00 | 0.00 | 98 | 1020.1 |
| 20260503070929 | 53 | 40 | 1.0 | 2.0 | 0.00 | 0.00 | 0.00 | 98 | 1020.1 |
| 20260503070829 | 53 | 58 | 1.0 | 2.0 | 0.00 | 0.00 | 0.00 | 98 | 1020.1 |
| 20260503070816 | 53 | 43 | 1.0 | 2.0 | 0.00 | 0.00 | 0.00 | 98 | 1020.1 |
| 20260503070725 | 53 | 49 | 1.0 | 2.0 | 0.00 | 0.00 | 0.00 | 98 | 1020.1 |
| 20260503070626 | 53 | 1 | 1.0 | 2.0 | 0.00 | 0.00 | 0.00 | 98 | 1020.0 |
| 20260503070548 | 53 | 56 | 1.0 | 2.0 | 0.00 | 0.00 | 0.00 | 98 | 1020.0 |
| 20260503070519 | 53 | 0 | 1.0 | 2.0 | 0.00 | 0.00 | 0.00 | 98 | 1020.0 |
| 20260503070427 | 53 | 56 | 1.0 | 2.0 | 0.00 | 0.00 | 0.00 | 98 | 1020.0 |
| 20260503070421 | 53 | 56 | 1.0 | 2.0 | 0.00 | 0.00 | 0.00 | 98 | 1020.0 |
| 20260503070217 | 53 | 45 | 2.0 | 2.0 | 0.00 | 0.00 | 0.00 | 98 | 1020.0 |
| 20260503070114 | 53 | 8 | 2.0 | 2.0 | 0.00 | 0.00 | 0.00 | 98 | 1020.0 |
| 20260503060324 | 54 | 45 | 1.0 | 2.0 | 0.00 | 0.00 | 0.00 | 97 | 1020.1 |
| 20260503060311 | 54 | 42 | 1.0 | 2.0 | 0.00 | 0.00 | 0.00 | 97 | 1020.1 |
| 20260503060224 | 54 | 33 | 1.0 | 2.0 | 0.00 | 0.00 | 0.00 | 97 | 1020.1 |
| 20260503060124 | 54 | 39 | 1.0 | 2.0 | 0.00 | 0.00 | 0.00 | 97 | 1020.1 |
| 20260503055048 | 54 | 46 | 1.0 | 2.0 | 0.00 | 0.00 | 0.00 | 96 | 1020.2 |
| 20260503054945 | 54 | 41 | 1.0 | 2.0 | 0.00 | 0.00 | 0.00 | 96 | 1020.1 |
| 20260503054845 | 54 | 36 | 1.0 | 2.0 | 0.00 | 0.00 | 0.00 | 96 | 1020.1 |
| 20260503054808 | 54 | 20 | 1.0 | 2.0 | 0.00 | 0.00 | 0.00 | 96 | 1020.1 |
| 20260503054742 | 54 | 13 | 1.0 | 2.0 | 0.00 | 0.00 | 0.00 | 96 | 1020.1 |
| 20260503054642 | 54 | 31 | 1.0 | 2.0 | 0.00 | 0.00 | 0.00 | 96 | 1020.1 |
| 20260503054539 | 54 | 38 | 1.0 | 2.0 | 0.00 | 0.00 | 0.00 | 96 | 1020.1 |
| 20260503054439 | 55 | 90 | 1.0 | 2.0 | 0.00 | 0.00 | 0.00 | 96 | 1020.1 |
| 20260503054339 | 55 | 37 | 1.0 | 2.0 | 0.00 | 0.00 | 0.00 | 96 | 1020.1 |
| 20260503054301 | 55 | 36 | 1.0 | 2.0 | 0.00 | 0.00 | 0.00 | 96 | 1020.1 |
| 20260503054239 | 55 | 7 | 1.0 | 2.0 | 0.00 | 0.00 | 0.00 | 96 | 1020.1 |
| 20260503054137 | 55 | 46 | 1.0 | 2.0 | 0.00 | 0.00 | 0.00 | 96 | 1020.1 |
| 20260503054037 | 55 | 38 | 1.0 | 2.0 | 0.00 | 0.00 | 0.00 | 96 | 1020.1 |
| 20260503053937 | 55 | 43 | 2.0 | 2.0 | 0.00 | 0.00 | 0.00 | 96 | 1020.1 |
| 20260503053837 | 55 | 28 | 1.0 | 2.0 | 0.00 | 0.00 | 0.00 | 96 | 1020.1 |
| 20260503053758 | 55 | 38 | 1.0 | 2.0 | 0.00 | 0.00 | 0.00 | 96 | 1020.1 |
| 20260503053737 | 55 | 33 | 1.0 | 2.0 | 0.00 | 0.00 | 0.00 | 96 | 1020.1 |
| 20260503053637 | 55 | 33 | 1.0 | 2.0 | 0.00 | 0.00 | 0.00 | 96 | 1020.1 |
| 20260503053537 | 55 | 35 | 1.0 | 2.0 | 0.00 | 0.00 | 0.00 | 96 | 1020.1 |
| 20260503053437 | 55 | 0 | 1.0 | 2.0 | 0.00 | 0.00 | 0.00 | 96 | 1020.1 |
| 20260503053337 | 55 | 35 | 1.0 | 2.0 | 0.00 | 0.00 | 0.00 | 96 | 1020.1 |
| 20260503053258 | 55 | 40 | 1.0 | 2.0 | 0.00 | 0.00 | 0.00 | 96 | 1020.1 |
| 20260503053237 | 55 | 32 | 1.0 | 2.0 | 0.00 | 0.00 | 0.00 | 96 | 1020.1 |
| 20260503053137 | 55 | 45 | 1.0 | 2.0 | 0.00 | 0.00 | 0.00 | 96 | 1020.1 |
| 20260503053037 | 55 | 33 | 1.0 | 2.0 | 0.00 | 0.00 | 0.00 | 96 | 1020.0 |
| 20260503052937 | 55 | 41 | 1.0 | 2.0 | 0.00 | 0.00 | 0.00 | 96 | 1020.0 |
| 20260503052837 | 55 | 40 | 1.0 | 2.0 | 0.00 | 0.00 | 0.00 | 96 | 1020.0 |
| 20260503052759 | 55 | 39 | 1.0 | 2.0 | 0.00 | 0.00 | 0.00 | 96 | 1020.0 |
| 20260503052737 | 55 | 44 | 1.0 | 2.0 | 0.00 | 0.00 | 0.00 | 96 | 1020.0 |
| 20260503052637 | 55 | 40 | 1.0 | 2.0 | 0.00 | 0.00 | 0.00 | 96 | 1020.0 |
| 20260503052537 | 55 | 337 | 1.0 | 2.0 | 0.00 | 0.00 | 0.00 | 96 | 1020.0 |
| 20260503052438 | 55 | 45 | 1.0 | 2.0 | 0.00 | 0.00 | 0.00 | 96 | 1020.0 |
| 20260503052336 | 55 | 43 | 1.0 | 2.0 | 0.00 | 0.00 | 0.00 | 96 | 1020.0 |
| 20260503052259 | 55 | 28 | 1.0 | 2.0 | 0.00 | 0.00 | 0.00 | 96 | 1020.0 |
| 20260503052236 | 55 | 30 | 1.0 | 2.0 | 0.00 | 0.00 | 0.00 | 96 | 1020.0 |
| 20260503052137 | 55 | 37 | 1.0 | 2.0 | 0.00 | 0.00 | 0.00 | 96 | 1020.0 |
| 20260503052037 | 55 | 50 | 1.0 | 2.0 | 0.00 | 0.00 | 0.00 | 96 | 1020.0 |
| 20260503052020 | 55 | 0 | 0.0 | 2.0 | 0.00 | 0.00 | 0.00 | 96 | 1020.0 |
| 20260503051937 | 55 | 39 | 1.0 | 2.0 | 0.00 | 0.00 | 0.00 | 96 | 1020.0 |
| 20260503051904 | 55 | 0 | 0.0 | 2.0 | 0.00 | 0.00 | 0.00 | 96 | 1020.0 |
| 20260503051734 | 55 | 43 | 0.0 | 2.0 | 0.00 | 0.00 | 0.00 | 96 | 1020.0 |
| 20260503051633 | 55 | 43 | 0.0 | 2.0 | 0.00 | 0.00 | 0.00 | 96 | 1019.9 |
| 20260503051533 | 55 | 36 | 0.0 | 2.0 | 0.00 | 0.00 | 0.00 | 95 | 1019.9 |
| 20260503051433 | 55 | 39 | 0.0 | 2.0 | 0.00 | 0.00 | 0.00 | 95 | 1019.9 |
| 20260503051333 | 55 | 39 | 1.0 | 2.0 | 0.00 | 0.00 | 0.00 | 95 | 1019.9 |
| 20260503051233 | 55 | 0 | 1.0 | 2.0 | 0.00 | 0.00 | 0.00 | 95 | 1019.9 |
| 20260503051131 | 55 | 0 | 1.0 | 2.0 | 0.00 | 0.00 | 0.00 | 95 | 1019.9 |
| 20260503051030 | 55 | 49 | 1.0 | 2.0 | 0.00 | 0.00 | 0.00 | 95 | 1019.9 |
| 20260503051017 | 55 | 47 | 1.0 | 2.0 | 0.00 | 0.00 | 0.00 | 95 | 1019.9 |
| 20260503050927 | 55 | 43 | 1.0 | 2.0 | 0.00 | 0.00 | 0.00 | 95 | 1019.9 |
| 20260503050901 | 55 | 0 | 1.0 | 2.0 | 0.00 | 0.00 | 0.00 | 95 | 1019.9 |
| 20260503050727 | 55 | 39 | 1.0 | 2.0 | 0.00 | 0.00 | 0.00 | 95 | 1019.8 |
| 20260503050627 | 55 | 37 | 1.0 | 2.0 | 0.00 | 0.00 | 0.00 | 95 | 1019.8 |
| 20260503050529 | 55 | 250 | 1.0 | 2.0 | 0.00 | 0.00 | 0.00 | 95 | 1019.8 |
| 20260503050422 | 55 | 41 | 1.0 | 2.0 | 0.00 | 0.00 | 0.00 | 95 | 1019.8 |
| 20260503050321 | 56 | 209 | 1.0 | 2.0 | 0.00 | 0.00 | 0.00 | 95 | 1019.8 |
| 20260503050257 | 56 | 35 | 1.0 | 2.0 | 0.00 | 0.00 | 0.00 | 95 | 1019.8 |
| 20260503050219 | 56 | 23 | 1.0 | 2.0 | 0.00 | 0.00 | 0.00 | 95 | 1019.8 |
| 20260503050118 | 56 | 0 | 1.0 | 2.0 | 0.00 | 0.00 | 0.00 | 95 | 1019.8 |
| 20260503050016 | 56 | 36 | 1.0 | 2.0 | 0.00 | 0.00 | 0.00 | 95 | 1019.8 |
| 20260503045916 | 56 | 47 | 1.0 | 2.0 | 0.00 | 0.00 | 0.00 | 95 | 1019.9 |
| 20260503045816 | 56 | 11 | 1.0 | 2.0 | 0.00 | 0.00 | 0.00 | 95 | 1019.9 |
| 20260503045757 | 56 | 34 | 1.0 | 2.0 | 0.00 | 0.00 | 0.00 | 95 | 1019.9 |
| 20260503045713 | 56 | 27 | 1.0 | 2.0 | 0.00 | 0.00 | 0.00 | 95 | 1019.9 |
| 20260503045613 | 56 | 32 | 1.0 | 2.0 | 0.00 | 0.00 | 0.00 | 95 | 1019.9 |
| 20260503045510 | 56 | 6 | 1.0 | 2.0 | 0.00 | 0.00 | 0.00 | 95 | 1019.9 |
| 20260503045409 | 56 | 46 | 1.0 | 2.0 | 0.00 | 0.00 | 0.00 | 95 | 1019.9 |
| 20260503045309 | 56 | 0 | 1.0 | 2.0 | 0.00 | 0.00 | 0.00 | 95 | 1019.9 |
| 20260503045256 | 56 | 321 | 1.0 | 2.0 | 0.00 | 0.00 | 0.00 | 95 | 1019.9 |
| 20260503045209 | 56 | 349 | 1.0 | 2.0 | 0.00 | 0.00 | 0.00 | 95 | 1019.8 |
| 20260503045109 | 56 | 31 | 1.0 | 2.0 | 0.00 | 0.00 | 0.00 | 95 | 1019.8 |
| 20260503045016 | 56 | 1 | 1.0 | 2.0 | 0.00 | 0.00 | 0.00 | 94 | 1019.8 |
| 20260503045007 | 56 | 35 | 1.0 | 2.0 | 0.00 | 0.00 | 0.00 | 95 | 1019.8 |
| 20260503044907 | 56 | 10 | 1.0 | 2.0 | 0.00 | 0.00 | 0.00 | 94 | 1019.8 |
| 20260503044902 | 56 | 1 | 1.0 | 2.0 | 0.00 | 0.00 | 0.00 | 94 | 1019.8 |
| 20260503044658 | 56 | 17 | 1.0 | 2.0 | 0.00 | 0.00 | 0.00 | 94 | 1019.8 |
| 20260503044555 | 56 | 69 | 1.0 | 2.0 | 0.00 | 0.00 | 0.00 | 94 | 1019.7 |
| 20260503044455 | 56 | 36 | 1.0 | 2.0 | 0.00 | 0.00 | 0.00 | 94 | 1019.7 |
| 20260503044355 | 56 | 35 | 1.0 | 2.0 | 0.00 | 0.00 | 0.00 | 94 | 1019.7 |
| 20260503044256 | 56 | 145 | 1.0 | 2.0 | 0.00 | 0.00 | 0.00 | 94 | 1019.7 |
| 20260503044152 | 56 | 35 | 1.0 | 2.0 | 0.00 | 0.00 | 0.00 | 94 | 1019.7 |
| 20260503044052 | 56 | 13 | 1.0 | 2.0 | 0.00 | 0.00 | 0.00 | 94 | 1019.7 |
| 20260503043952 | 56 | 38 | 1.0 | 2.0 | 0.00 | 0.00 | 0.00 | 94 | 1019.7 |
| 20260503043840 | 56 | 39 | 1.0 | 2.0 | 0.00 | 0.00 | 0.00 | 94 | 1019.7 |
| 20260503043750 | 56 | 21 | 1.0 | 2.0 | 0.00 | 0.00 | 0.00 | 94 | 1019.7 |
| 20260503043740 | 56 | 38 | 1.0 | 2.0 | 0.00 | 0.00 | 0.00 | 94 | 1019.7 |
| 20260503043640 | 56 | 42 | 1.0 | 2.0 | 0.00 | 0.00 | 0.00 | 94 | 1019.7 |
| 20260503043539 | 56 | 35 | 1.0 | 2.0 | 0.00 | 0.00 | 0.00 | 94 | 1019.7 |
| 20260503043438 | 56 | 302 | 1.0 | 2.0 | 0.00 | 0.00 | 0.00 | 93 | 1019.7 |
| 20260503043337 | 56 | 36 | 1.0 | 2.0 | 0.00 | 0.00 | 0.00 | 93 | 1019.7 |
| 20260503043251 | 56 | 33 | 1.0 | 2.0 | 0.00 | 0.00 | 0.00 | 93 | 1019.7 |
| 20260503043206 | 56 | 30 | 1.0 | 2.0 | 0.00 | 0.00 | 0.00 | 93 | 1019.7 |
| 20260503043108 | 56 | 41 | 1.0 | 2.0 | 0.00 | 0.00 | 0.00 | 93 | 1019.7 |
| 20260503043004 | 56 | 11 | 1.0 | 2.0 | 0.00 | 0.00 | 0.00 | 93 | 1019.7 |
| 20260503042904 | 56 | 27 | 1.0 | 2.0 | 0.00 | 0.00 | 0.00 | 93 | 1019.7 |
| 20260503042801 | 56 | 359 | 1.0 | 2.0 | 0.00 | 0.00 | 0.00 | 93 | 1019.7 |
| 20260503042747 | 56 | 341 | 1.0 | 2.0 | 0.00 | 0.00 | 0.00 | 93 | 1019.7 |
| 20260503042655 | 56 | 0 | 1.0 | 2.0 | 0.00 | 0.00 | 0.00 | 93 | 1019.7 |
| 20260503042549 | 56 | 42 | 1.0 | 2.0 | 0.00 | 0.00 | 0.00 | 93 | 1019.7 |
| 20260503042447 | 56 | 38 | 1.0 | 2.0 | 0.00 | 0.00 | 0.00 | 93 | 1019.8 |
| 20260503042340 | 56 | 13 | 1.0 | 2.0 | 0.00 | 0.00 | 0.00 | 93 | 1019.8 |
| 20260503042238 | 56 | 15 | 1.0 | 2.0 | 0.00 | 0.00 | 0.00 | 93 | 1019.8 |
| 20260503042129 | 56 | 76 | 1.0 | 2.0 | 0.00 | 0.00 | 0.00 | 93 | 1019.8 |
| 20260503042024 | 56 | 40 | 1.0 | 2.0 | 0.00 | 0.00 | 0.00 | 93 | 1019.7 |
| 20260503041908 | 56 | 42 | 1.0 | 2.0 | 0.00 | 0.00 | 0.00 | 93 | 1019.7 |
| 20260503041808 | 56 | 26 | 1.0 | 2.0 | 0.00 | 0.00 | 0.00 | 93 | 1019.7 |
| 20260503041733 | 56 | 27 | 1.0 | 2.0 | 0.00 | 0.00 | 0.00 | 93 | 1019.7 |
| 20260503041704 | 56 | 41 | 1.0 | 2.0 | 0.00 | 0.00 | 0.00 | 93 | 1019.7 |
| 20260503041601 | 56 | 14 | 1.0 | 2.0 | 0.00 | 0.00 | 0.00 | 92 | 1019.7 |
| 20260503041501 | 56 | 9 | 1.0 | 2.0 | 0.00 | 0.00 | 0.00 | 92 | 1019.7 |
| 20260503041401 | 56 | 36 | 1.0 | 2.0 | 0.00 | 0.00 | 0.00 | 92 | 1019.7 |
| 20260503041255 | 56 | 91 | 1.0 | 2.0 | 0.00 | 0.00 | 0.00 | 92 | 1019.7 |
| 20260503041215 | 56 | 46 | 1.0 | 2.0 | 0.00 | 0.00 | 0.00 | 92 | 1019.7 |
| 20260503041155 | 56 | 29 | 1.0 | 2.0 | 0.00 | 0.00 | 0.00 | 92 | 1019.7 |
| 20260503041050 | 56 | 24 | 1.0 | 2.0 | 0.00 | 0.00 | 0.00 | 92 | 1019.7 |
| 20260503040950 | 56 | 68 | 1.0 | 2.0 | 0.00 | 0.00 | 0.00 | 92 | 1019.7 |
| 20260503040849 | 56 | 14 | 1.0 | 2.0 | 0.00 | 0.00 | 0.00 | 92 | 1019.7 |
| 20260503040749 | 56 | 27 | 1.0 | 2.0 | 0.00 | 0.00 | 0.00 | 92 | 1019.7 |
| 20260503040716 | 56 | 335 | 1.0 | 2.0 | 0.00 | 0.00 | 0.00 | 92 | 1019.7 |
| 20260503040649 | 56 | 345 | 1.0 | 2.0 | 0.00 | 0.00 | 0.00 | 92 | 1019.7 |
| 20260503040549 | 56 | 302 | 1.0 | 2.0 | 0.00 | 0.00 | 0.00 | 92 | 1019.7 |
| 20260503040449 | 56 | 42 | 1.0 | 2.0 | 0.00 | 0.00 | 0.00 | 92 | 1019.7 |
| 20260503040431 | 56 | 41 | 1.0 | 2.0 | 0.00 | 0.00 | 0.00 | 92 | 1019.6 |
| 20260503040343 | 56 | 0 | 1.0 | 2.0 | 0.00 | 0.00 | 0.00 | 92 | 1019.7 |
| 20260503040315 | 56 | 46 | 1.0 | 2.0 | 0.00 | 0.00 | 0.00 | 92 | 1019.6 |
| 20260503040140 | 56 | 22 | 1.0 | 2.0 | 0.00 | 0.00 | 0.00 | 92 | 1019.6 |
| 20260503040040 | 56 | 50 | 1.0 | 2.0 | 0.00 | 0.00 | 0.00 | 92 | 1019.6 |
| 20260503035937 | 56 | 1 | 1.0 | 2.0 | 0.00 | 0.00 | 0.00 | 92 | 1019.6 |
| 20260503035834 | 56 | 12 | 1.0 | 2.0 | 0.00 | 0.00 | 0.00 | 92 | 1019.6 |
| 20260503035735 | 56 | 45 | 1.0 | 2.0 | 0.00 | 0.00 | 0.00 | 92 | 1019.6 |
| 20260503035709 | 56 | 2 | 1.0 | 2.0 | 0.00 | 0.00 | 0.00 | 92 | 1019.6 |
| 20260503035632 | 56 | 39 | 1.0 | 2.0 | 0.00 | 0.00 | 0.00 | 92 | 1019.6 |
| 20260503035529 | 57 | 26 | 1.0 | 2.0 | 0.00 | 0.00 | 0.00 | 91 | 1019.6 |
| 20260503035430 | 57 | 346 | 1.0 | 2.0 | 0.00 | 0.00 | 0.00 | 91 | 1019.6 |
| 20260503035327 | 57 | 30 | 1.0 | 2.0 | 0.00 | 0.00 | 0.00 | 92 | 1019.6 |
| 20260503035226 | 57 | 35 | 1.0 | 2.0 | 0.00 | 0.00 | 0.00 | 92 | 1019.5 |
| 20260503035202 | 57 | 49 | 1.0 | 2.0 | 0.00 | 0.00 | 0.00 | 92 | 1019.5 |
| 20260503035123 | 57 | 4 | 1.0 | 2.0 | 0.00 | 0.00 | 0.00 | 91 | 1019.5 |
| 20260503035024 | 57 | 9 | 1.0 | 2.0 | 0.00 | 0.00 | 0.00 | 91 | 1019.5 |
| 20260503034923 | 57 | 13 | 1.0 | 2.0 | 0.00 | 0.00 | 0.00 | 91 | 1019.5 |
| 20260503034818 | 57 | 8 | 1.0 | 2.0 | 0.00 | 0.00 | 0.00 | 91 | 1019.5 |
| 20260503034717 | 57 | 33 | 1.0 | 2.0 | 0.00 | 0.00 | 0.00 | 91 | 1019.5 |
| 20260503034702 | 57 | 42 | 1.0 | 2.0 | 0.00 | 0.00 | 0.00 | 91 | 1019.5 |
| 20260503034617 | 57 | 64 | 1.0 | 2.0 | 0.00 | 0.00 | 0.00 | 91 | 1019.5 |
| 20260503034517 | 57 | 8 | 1.0 | 2.0 | 0.00 | 0.00 | 0.00 | 91 | 1019.5 |
| 20260503034412 | 57 | 33 | 1.0 | 2.0 | 0.00 | 0.00 | 0.00 | 91 | 1019.5 |
| 20260503034306 | 57 | 23 | 1.0 | 2.0 | 0.00 | 0.00 | 0.00 | 91 | 1019.5 |
| 20260503034204 | 57 | 30 | 1.0 | 2.0 | 0.00 | 0.00 | 0.00 | 91 | 1019.5 |
| 20260503034158 | 57 | 8 | 1.0 | 2.0 | 0.00 | 0.00 | 0.00 | 91 | 1019.5 |
| 20260503034140 | 57 | 62 | 1.0 | 2.0 | 0.00 | 0.00 | 0.00 | 90 | 1019.4 |
| 20260503034103 | 57 | 9 | 1.0 | 2.0 | 0.00 | 0.00 | 0.00 | 91 | 1019.5 |
| 20260503034022 | 57 | 40 | 1.0 | 2.0 | 0.00 | 0.00 | 0.00 | 91 | 1019.5 |
| 20260503033858 | 57 | 34 | 1.0 | 2.0 | 0.00 | 0.00 | 0.00 | 91 | 1019.4 |
| 20260503033804 | 57 | 9 | 1.0 | 2.0 | 0.00 | 0.00 | 0.00 | 91 | 1019.4 |
| 20260503033758 | 57 | 62 | 1.0 | 2.0 | 0.00 | 0.00 | 0.00 | 90 | 1019.4 |
| 20260503033545 | 57 | 58 | 1.0 | 2.0 | 0.00 | 0.00 | 0.00 | 90 | 1019.4 |
| 20260503033445 | 57 | 48 | 1.0 | 2.0 | 0.00 | 0.00 | 0.00 | 90 | 1019.4 |
| 20260503033345 | 57 | 46 | 1.0 | 2.0 | 0.00 | 0.00 | 0.00 | 90 | 1019.4 |
| 20260503033245 | 57 | 61 | 1.0 | 2.0 | 0.00 | 0.00 | 0.00 | 89 | 1019.3 |
| 20260503033146 | 57 | 42 | 1.0 | 2.0 | 0.00 | 0.00 | 0.00 | 89 | 1019.3 |
| 20260503033040 | 57 | 62 | 1.0 | 2.0 | 0.00 | 0.00 | 0.00 | 89 | 1019.3 |
| 20260503032940 | 57 | 37 | 1.0 | 2.0 | 0.00 | 0.00 | 0.00 | 89 | 1019.3 |
| 20260503032839 | 57 | 41 | 1.0 | 2.0 | 0.00 | 0.00 | 0.00 | 89 | 1019.2 |
| 20260503032739 | 57 | 53 | 1.0 | 2.0 | 0.00 | 0.00 | 0.00 | 89 | 1019.2 |
| 20260503032635 | 57 | 53 | 1.0 | 2.0 | 0.00 | 0.00 | 0.00 | 89 | 1019.2 |
| 20260503032630 | 57 | 57 | 1.0 | 2.0 | 0.00 | 0.00 | 0.00 | 89 | 1019.2 |
| 20260503032527 | 57 | 21 | 1.0 | 2.0 | 0.00 | 0.00 | 0.00 | 89 | 1019.2 |
| 20260503032427 | 57 | 9 | 1.0 | 2.0 | 0.00 | 0.00 | 0.00 | 88 | 1019.2 |
| 20260503032327 | 57 | 0 | 1.0 | 2.0 | 0.00 | 0.00 | 0.00 | 88 | 1019.2 |
| 20260503032221 | 57 | 56 | 1.0 | 2.0 | 0.00 | 0.00 | 0.00 | 88 | 1019.2 |
| 20260503032135 | 57 | 358 | 1.0 | 2.0 | 0.00 | 0.00 | 0.00 | 88 | 1019.2 |
| 20260503032115 | 57 | 338 | 1.0 | 2.0 | 0.00 | 0.00 | 0.00 | 88 | 1019.2 |
| 20260503032013 | 57 | 59 | 0.0 | 2.0 | 0.00 | 0.00 | 0.00 | 88 | 1019.2 |
| 20260503031909 | 57 | 17 | 0.0 | 2.0 | 0.00 | 0.00 | 0.00 | 88 | 1019.2 |
| 20260503031806 | 57 | 26 | 0.0 | 2.0 | 0.00 | 0.00 | 0.00 | 88 | 1019.2 |
| 20260503031705 | 57 | 38 | 0.0 | 2.0 | 0.00 | 0.00 | 0.00 | 88 | 1019.2 |
| 20260503031635 | 57 | 35 | 0.0 | 2.0 | 0.00 | 0.00 | 0.00 | 88 | 1019.2 |
| 20260503031619 | 57 | 63 | 1.0 | 2.0 | 0.00 | 0.00 | 0.00 | 88 | 1019.2 |
| 20260503031506 | 57 | 5 | 0.0 | 2.0 | 0.00 | 0.00 | 0.00 | 88 | 1019.2 |
| 20260503031406 | 57 | 341 | 0.0 | 2.0 | 0.00 | 0.00 | 0.00 | 88 | 1019.2 |
| 20260503031306 | 57 | 282 | 0.0 | 2.0 | 0.00 | 0.00 | 0.00 | 88 | 1019.1 |
| 20260503031200 | 57 | 0 | 0.0 | 2.0 | 0.00 | 0.00 | 0.00 | 88 | 1019.1 |
| 20260503031132 | 57 | 28 | 0.0 | 2.0 | 0.00 | 0.00 | 0.00 | 87 | 1019.1 |
| 20260503031057 | 57 | 0 | 0.0 | 2.0 | 0.00 | 0.00 | 0.00 | 87 | 1019.1 |
| 20260503030957 | 57 | 0 | 1.0 | 2.0 | 0.00 | 0.00 | 0.00 | 87 | 1019.1 |
| 20260503030855 | 57 | 73 | 1.0 | 2.0 | 0.00 | 0.00 | 0.00 | 87 | 1019.1 |
| 20260503030755 | 57 | 37 | 1.0 | 2.0 | 0.00 | 0.00 | 0.00 | 87 | 1019.1 |
| 20260503030654 | 57 | 23 | 1.0 | 2.0 | 0.00 | 0.00 | 0.00 | 87 | 1019.1 |
| 20260503030629 | 57 | 72 | 1.0 | 2.0 | 0.00 | 0.00 | 0.00 | 87 | 1019.1 |
| 20260503030555 | 57 | 33 | 1.0 | 2.0 | 0.00 | 0.00 | 0.00 | 87 | 1019.1 |
| 20260503030454 | 58 | 6 | 1.0 | 2.0 | 0.00 | 0.00 | 0.00 | 86 | 1019.1 |
| 20260503030348 | 58 | 44 | 1.0 | 2.0 | 0.00 | 0.00 | 0.00 | 86 | 1019.1 |
| 20260503030249 | 58 | 80 | 1.0 | 2.0 | 0.00 | 0.00 | 0.00 | 86 | 1019.1 |
| 20260503030145 | 58 | 28 | 1.0 | 2.0 | 0.00 | 0.00 | 0.00 | 86 | 1019.1 |
| 20260503030128 | 58 | 0 | 1.0 | 2.0 | 0.00 | 0.00 | 0.00 | 86 | 1019.1 |
| 20260503030045 | 58 | 320 | 1.0 | 2.0 | 0.00 | 0.00 | 0.00 | 86 | 1019.1 |
| 20260503025942 | 58 | 44 | 1.0 | 2.0 | 0.00 | 0.00 | 0.00 | 86 | 1019.1 |
| 20260503025842 | 58 | 46 | 1.0 | 2.0 | 0.00 | 0.00 | 0.00 | 86 | 1019.1 |
| 20260503025741 | 58 | 30 | 1.0 | 2.0 | 0.00 | 0.00 | 0.00 | 86 | 1019.1 |
| 20260503025642 | 58 | 27 | 1.0 | 2.0 | 0.00 | 0.01 | 0.00 | 86 | 1019.1 |
| 20260503025626 | 58 | 38 | 1.0 | 2.0 | 0.00 | 0.01 | 0.00 | 86 | 1019.1 |
| 20260503025543 | 58 | 19 | 1.0 | 2.0 | 0.00 | 0.01 | 0.00 | 86 | 1019.1 |
| 20260503025443 | 58 | 77 | 1.0 | 2.0 | 0.00 | 0.01 | 0.00 | 86 | 1019.1 |
| 20260503025341 | 58 | 243 | 1.0 | 2.0 | 0.00 | 0.02 | 0.00 | 86 | 1019.1 |
| 20260503025241 | 58 | 9 | 1.0 | 2.0 | 0.00 | 0.02 | 0.00 | 86 | 1019.1 |
| 20260503025137 | 58 | 20 | 1.0 | 2.0 | 0.00 | 0.02 | 0.00 | 86 | 1019.0 |
| 20260503025126 | 58 | 27 | 1.0 | 2.0 | 0.00 | 0.02 | 0.00 | 86 | 1019.0 |
| 20260503025033 | 58 | 21 | 1.0 | 2.0 | 0.00 | 0.02 | 0.00 | 86 | 1019.0 |
| 20260503024933 | 59 | 44 | 1.0 | 2.0 | 0.00 | 0.02 | 0.00 | 86 | 1019.0 |
| 20260503024846 | 59 | 92 | 1.0 | 2.0 | 0.00 | 0.02 | 0.00 | 86 | 1019.0 |
| 20260503024828 | 59 | 16 | 1.0 | 2.0 | 0.00 | 0.02 | 0.00 | 86 | 1019.0 |
| 20260503024734 | 59 | 33 | 1.0 | 2.0 | 0.00 | 0.02 | 0.00 | 86 | 1019.0 |
| 20260503024729 | 59 | 28 | 1.0 | 2.0 | 0.00 | 0.02 | 0.00 | 86 | 1019.0 |
| 20260503024528 | 59 | 37 | 1.0 | 2.0 | 0.00 | 0.02 | 0.00 | 85 | 1019.0 |
| 20260503024428 | 59 | 344 | 1.0 | 2.0 | 0.00 | 0.02 | 0.00 | 85 | 1019.0 |
| 20260503024325 | 59 | 24 | 1.0 | 2.0 | 0.00 | 0.02 | 0.00 | 85 | 1019.1 |
| 20260503024224 | 59 | 30 | 1.0 | 2.0 | 0.00 | 0.02 | 0.00 | 85 | 1019.1 |
| 20260503024125 | 59 | 5 | 1.0 | 2.0 | 0.00 | 0.02 | 0.00 | 85 | 1019.1 |
| 20260503024024 | 59 | 19 | 0.0 | 2.0 | 0.00 | 0.02 | 0.00 | 85 | 1019.1 |
| 20260503023925 | 59 | 301 | 0.0 | 2.0 | 0.00 | 0.02 | 0.00 | 85 | 1019.1 |
| 20260503023825 | 59 | 353 | 0.0 | 2.0 | 0.00 | 0.03 | 0.00 | 85 | 1019.1 |
| 20260503023724 | 59 | 330 | 0.0 | 2.0 | 0.00 | 0.03 | 0.00 | 85 | 1019.1 |
| 20260503023624 | 59 | 12 | 0.0 | 2.0 | 0.00 | 0.03 | 0.00 | 85 | 1019.1 |
| 20260503023511 | 59 | 0 | 1.0 | 2.0 | 0.00 | 0.03 | 0.00 | 85 | 1019.1 |
| 20260503023411 | 59 | 320 | 1.0 | 2.0 | 0.00 | 0.03 | 0.00 | 84 | 1019.1 |
| 20260503023310 | 59 | 307 | 1.0 | 2.0 | 0.00 | 0.03 | 0.00 | 84 | 1019.1 |
| 20260503023210 | 59 | 13 | 1.0 | 2.0 | 0.00 | 0.03 | 0.00 | 84 | 1019.1 |
| 20260503023121 | 59 | 11 | 1.0 | 2.0 | 0.00 | 0.03 | 0.00 | 83 | 1019.1 |
| 20260503023109 | 59 | 352 | 1.0 | 2.0 | 0.00 | 0.03 | 0.00 | 83 | 1019.1 |
| 20260503023010 | 59 | 50 | 1.0 | 2.0 | 0.00 | 0.03 | 0.00 | 83 | 1019.1 |
| 20260503022907 | 59 | 38 | 1.0 | 2.0 | 0.00 | 0.03 | 0.00 | 83 | 1019.1 |
| 20260503022804 | 60 | 334 | 1.0 | 2.0 | 0.00 | 0.03 | 0.00 | 83 | 1019.1 |
| 20260503022703 | 60 | 31 | 1.0 | 2.0 | 0.00 | 0.03 | 0.00 | 83 | 1019.1 |
| 20260503022621 | 60 | 347 | 1.0 | 2.0 | 0.00 | 0.03 | 0.00 | 82 | 1019.0 |
| 20260503022604 | 60 | 73 | 1.0 | 2.0 | 0.00 | 0.03 | 0.00 | 82 | 1019.0 |
| 20260503022501 | 60 | 103 | 1.0 | 2.0 | 0.00 | 0.03 | 0.00 | 82 | 1019.0 |
| 20260503022400 | 60 | 203 | 1.0 | 2.0 | 0.00 | 0.03 | 0.00 | 82 | 1018.9 |
| 20260503022258 | 60 | 27 | 1.0 | 2.0 | 0.00 | 0.03 | 0.00 | 81 | 1018.9 |
| 20260503022158 | 60 | 315 | 1.0 | 2.0 | 0.00 | 0.03 | 0.00 | 81 | 1018.9 |
| 20260503022118 | 60 | 336 | 1.0 | 2.0 | 0.00 | 0.03 | 0.00 | 81 | 1018.9 |
| 20260503022058 | 60 | 315 | 1.0 | 2.0 | 0.00 | 0.03 | 0.00 | 81 | 1018.9 |
| 20260503021958 | 60 | 28 | 1.0 | 2.0 | 0.00 | 0.03 | 0.00 | 81 | 1018.9 |
| 20260503021858 | 60 | 329 | 1.0 | 2.0 | 0.00 | 0.03 | 0.00 | 81 | 1018.9 |
| 20260503021754 | 60 | 26 | 1.0 | 2.0 | 0.00 | 0.03 | 0.00 | 81 | 1018.9 |
| 20260503021652 | 60 | 43 | 1.0 | 2.0 | 0.00 | 0.03 | 0.00 | 81 | 1018.9 |
| 20260503021618 | 60 | 332 | 1.0 | 2.0 | 0.00 | 0.03 | 0.00 | 81 | 1018.9 |
| 20260503021549 | 60 | 340 | 1.0 | 2.0 | 0.00 | 0.03 | 0.00 | 81 | 1018.9 |
| 20260503021443 | 60 | 2 | 1.0 | 2.0 | 0.00 | 0.03 | 0.00 | 81 | 1018.9 |
| 20260503021343 | 60 | 19 | 1.0 | 2.0 | 0.00 | 0.03 | 0.00 | 80 | 1018.9 |
| 20260503021243 | 61 | 359 | 1.0 | 2.0 | 0.00 | 0.03 | 0.00 | 80 | 1018.9 |
| 20260503021143 | 61 | 333 | 1.0 | 2.0 | 0.00 | 0.03 | 0.00 | 80 | 1018.8 |
| 20260503021118 | 61 | 46 | 1.0 | 2.0 | 0.00 | 0.03 | 0.00 | 81 | 1018.8 |
| 20260503021043 | 61 | 322 | 1.0 | 2.0 | 0.00 | 0.03 | 0.00 | 81 | 1018.8 |
| 20260503020943 | 61 | 350 | 1.0 | 2.0 | 0.00 | 0.03 | 0.00 | 81 | 1018.7 |
| 20260503020843 | 61 | 40 | 1.0 | 2.0 | 0.00 | 0.03 | 0.00 | 81 | 1018.7 |
| 20260503020743 | 61 | 302 | 1.0 | 2.0 | 0.00 | 0.03 | 0.00 | 81 | 1018.7 |
| 20260503020643 | 61 | 3 | 1.0 | 2.0 | 0.00 | 0.03 | 0.00 | 80 | 1018.7 |
| 20260503020617 | 62 | 63 | 1.0 | 2.0 | 0.00 | 0.03 | 0.00 | 80 | 1018.7 |
| 20260503020543 | 62 | 26 | 1.0 | 2.0 | 0.00 | 0.03 | 0.00 | 80 | 1018.7 |
| 20260503020443 | 62 | 359 | 1.0 | 2.0 | 0.00 | 0.03 | 0.00 | 80 | 1018.7 |
| 20260503020341 | 62 | 6 | 1.0 | 2.0 | 0.00 | 0.03 | 0.00 | 80 | 1018.7 |
| 20260503020241 | 62 | 14 | 1.0 | 2.0 | 0.00 | 0.03 | 0.00 | 79 | 1018.8 |
| 20260503020142 | 62 | 350 | 0.0 | 2.0 | 0.00 | 0.03 | 0.00 | 78 | 1018.8 |
| 20260503020114 | 62 | 3 | 0.0 | 2.0 | 0.00 | 0.03 | 0.00 | 78 | 1018.8 |
| 20260503020042 | 62 | 4 | 0.0 | 2.0 | 0.00 | 0.03 | 0.00 | 78 | 1018.8 |
| 20260503015942 | 62 | 10 | 0.0 | 1.0 | 0.00 | 0.03 | 0.00 | 78 | 1018.8 |
| 20260503015842 | 62 | 27 | 0.0 | 1.0 | 0.00 | 0.03 | 0.00 | 78 | 1018.8 |
| 20260503015836 | 62 | 37 | 0.0 | 1.0 | 0.00 | 0.03 | 0.00 | 78 | 1018.9 |
| 20260503015742 | 62 | 15 | 0.0 | 1.0 | 0.00 | 0.03 | 0.00 | 78 | 1018.9 |
| 20260503015720 | 62 | 26 | 0.0 | 1.0 | 0.00 | 0.03 | 0.00 | 78 | 1018.9 |
| 20260503015541 | 62 | 28 | 0.0 | 1.0 | 0.00 | 0.03 | 0.00 | 78 | 1018.9 |
| 20260503015440 | 62 | 45 | 0.0 | 1.0 | 0.00 | 0.03 | 0.00 | 77 | 1018.9 |
| 20260503015340 | 62 | 0 | 0.0 | 1.0 | 0.00 | 0.03 | 0.00 | 77 | 1018.9 |
| 20260503015240 | 63 | 0 | 0.0 | 1.0 | 0.00 | 0.03 | 0.00 | 77 | 1018.8 |
| 20260503015140 | 63 | 299 | 0.0 | 1.0 | 0.00 | 0.03 | 0.00 | 77 | 1018.8 |
| 20260503015109 | 63 | 0 | 0.0 | 1.0 | 0.00 | 0.03 | 0.00 | 77 | 1018.8 |
| 20260503015040 | 63 | 0 | 0.0 | 1.0 | 0.00 | 0.03 | 0.00 | 76 | 1018.8 |
| 20260503014940 | 63 | 0 | 0.0 | 1.0 | 0.00 | 0.03 | 0.00 | 76 | 1018.8 |
| 20260503014837 | 63 | 349 | 0.0 | 1.0 | 0.00 | 0.03 | 0.00 | 75 | 1018.7 |
| 20260503014734 | 63 | 0 | 0.0 | 1.0 | 0.00 | 0.03 | 0.00 | 75 | 1018.7 |
| 20260503014634 | 63 | 0 | 0.0 | 1.0 | 0.00 | 0.03 | 0.00 | 75 | 1018.7 |
| 20260503014609 | 63 | 59 | 0.0 | 1.0 | 0.00 | 0.03 | 0.00 | 75 | 1018.7 |
| 20260503014534 | 63 | 10 | 0.0 | 1.0 | 0.00 | 0.03 | 0.00 | 75 | 1018.6 |
| 20260503014434 | 63 | 0 | 0.0 | 1.0 | 0.00 | 0.03 | 0.00 | 74 | 1018.6 |
| 20260503014334 | 63 | 49 | 0.0 | 1.0 | 0.00 | 0.03 | 0.00 | 74 | 1018.6 |
| 20260503014234 | 64 | 0 | 0.0 | 1.0 | 0.00 | 0.03 | 0.00 | 73 | 1018.6 |
| 20260503014134 | 64 | 0 | 0.0 | 1.0 | 0.00 | 0.03 | 0.00 | 73 | 1018.6 |
| 20260503014109 | 64 | 67 | 0.0 | 1.0 | 0.00 | 0.03 | 0.00 | 73 | 1018.6 |
| 20260503014031 | 64 | 314 | 0.0 | 2.0 | 0.00 | 0.03 | 0.00 | 73 | 1018.6 |
| 20260503013931 | 64 | 36 | 0.0 | 2.0 | 0.00 | 0.03 | 0.00 | 73 | 1018.6 |
| 20260503013831 | 64 | 279 | 0.0 | 2.0 | 0.00 | 0.03 | 0.00 | 73 | 1018.6 |
| 20260503013725 | 64 | 296 | 0.0 | 2.0 | 0.00 | 0.03 | 0.00 | 72 | 1018.5 |
| 20260503013625 | 64 | 297 | 0.0 | 2.0 | 0.00 | 0.03 | 0.00 | 72 | 1018.5 |
| 20260503013610 | 64 | 38 | 0.0 | 2.0 | 0.00 | 0.03 | 0.00 | 72 | 1018.5 |
| 20260503013526 | 64 | 81 | 0.0 | 2.0 | 0.00 | 0.03 | 0.00 | 71 | 1018.5 |
| 20260503013419 | 64 | 321 | 0.0 | 2.0 | 0.00 | 0.03 | 0.00 | 71 | 1018.5 |
| 20260503013320 | 64 | 61 | 0.0 | 2.0 | 0.00 | 0.03 | 0.00 | 70 | 1018.4 |
| 20260503013220 | 64 | 63 | 1.0 | 2.0 | 0.00 | 0.03 | 0.00 | 70 | 1018.4 |
| 20260503013120 | 64 | 7 | 1.0 | 2.0 | 0.00 | 0.03 | 0.00 | 70 | 1018.4 |
| 20260503013109 | 64 | 34 | 1.0 | 2.0 | 0.00 | 0.03 | 0.00 | 70 | 1018.4 |
| 20260503013028 | 65 | 0 | 0.0 | 2.0 | 0.00 | 0.03 | 0.00 | 70 | 1018.4 |
| 20260503012917 | 65 | 0 | 0.0 | 2.0 | 0.00 | 0.03 | 0.00 | 70 | 1018.4 |
| 20260503012817 | 65 | 338 | 1.0 | 2.0 | 0.00 | 0.03 | 0.00 | 70 | 1018.4 |
| 20260503012714 | 65 | 13 | 0.0 | 2.0 | 0.00 | 0.03 | 0.00 | 71 | 1018.4 |
| 20260503012610 | 65 | 19 | 0.0 | 2.0 | 0.00 | 0.03 | 0.00 | 71 | 1018.4 |
| 20260503012510 | 65 | 44 | 0.0 | 2.0 | 0.00 | 0.03 | 0.00 | 71 | 1018.4 |
| 20260503012411 | 65 | 49 | 0.0 | 2.0 | 0.00 | 0.03 | 0.00 | 70 | 1018.4 |
| 20260503012306 | 65 | 42 | 0.0 | 2.0 | 0.00 | 0.03 | 0.00 | 70 | 1018.3 |
| 20260503012204 | 66 | 50 | 0.0 | 2.0 | 0.00 | 0.03 | 0.00 | 69 | 1018.3 |
| 20260503012104 | 66 | 0 | 0.0 | 2.0 | 0.00 | 0.03 | 0.00 | 69 | 1018.3 |
| 20260503012004 | 66 | 59 | 0.0 | 2.0 | 0.00 | 0.03 | 0.00 | 69 | 1018.3 |
| 20260503011902 | 66 | 71 | 0.0 | 2.0 | 0.00 | 0.03 | 0.00 | 68 | 1018.3 |
| 20260503011801 | 66 | 96 | 0.0 | 2.0 | 0.00 | 0.03 | 0.00 | 69 | 1018.4 |
| 20260503011659 | 66 | 296 | 0.0 | 2.0 | 0.00 | 0.03 | 0.00 | 68 | 1018.3 |
| 20260503011606 | 66 | 83 | 0.0 | 2.0 | 0.00 | 0.03 | 0.00 | 68 | 1018.3 |
| 20260503011559 | 66 | 83 | 0.0 | 2.0 | 0.00 | 0.03 | 0.00 | 68 | 1018.3 |
| 20260503011553 | 67 | 290 | 0.0 | 2.0 | 0.00 | 0.03 | 0.00 | 63 | 1018.3 |
| 20260503011456 | 67 | 0 | 0.0 | 2.0 | 0.00 | 0.03 | 0.00 | 67 | 1018.3 |
| 20260503011438 | 67 | 28 | 0.0 | 2.0 | 0.00 | 0.03 | 0.00 | 63 | 1018.3 |
| 20260503011249 | 67 | 39 | 1.0 | 2.0 | 0.00 | 0.03 | 0.00 | 63 | 1018.3 |
| 20260503011212 | 67 | 298 | 0.0 | 2.0 | 0.00 | 0.03 | 0.00 | 63 | 1018.3 |
| 20260503011044 | 67 | 17 | 0.0 | 2.0 | 0.00 | 0.03 | 0.00 | 63 | 1018.3 |
| 20260503010944 | 67 | 0 | 0.0 | 2.0 | 0.00 | 0.03 | 0.00 | 63 | 1018.3 |
| 20260503010842 | 68 | 34 | 0.0 | 2.0 | 0.00 | 0.03 | 0.00 | 64 | 1018.2 |
| 20260503010742 | 68 | 0 | 0.0 | 2.0 | 0.00 | 0.03 | 0.00 | 64 | 1018.2 |
| 20260503010642 | 68 | 71 | 0.0 | 2.0 | 0.00 | 0.03 | 0.00 | 64 | 1018.2 |
| 20260503010604 | 68 | 345 | 0.0 | 2.0 | 0.00 | 0.03 | 0.00 | 64 | 1018.2 |
| 20260503010541 | 68 | 0 | 0.0 | 2.0 | 0.00 | 0.03 | 0.00 | 63 | 1018.2 |
| 20260503010438 | 68 | 80 | 0.0 | 2.0 | 0.00 | 0.03 | 0.00 | 63 | 1018.2 |
| 20260503010335 | 68 | 41 | 0.0 | 2.0 | 0.00 | 0.03 | 0.00 | 63 | 1018.2 |
| 20260503010232 | 69 | 0 | 0.0 | 2.0 | 0.00 | 0.03 | 0.00 | 63 | 1018.2 |
| 20260503010103 | 69 | 38 | 0.0 | 2.0 | 0.00 | 0.03 | 0.00 | 61 | 1018.1 |
| 20260503010029 | 69 | 241 | 0.0 | 2.0 | 0.00 | 0.03 | 0.00 | 61 | 1018.1 |
| 20260503005919 | 69 | 0 | 0.0 | 2.0 | 0.00 | 0.03 | 0.00 | 61 | 1018.1 |
| 20260503005817 | 69 | 41 | 0.0 | 1.0 | 0.00 | 0.03 | 0.00 | 61 | 1018.1 |
| 20260503005713 | 69 | 0 | 0.0 | 1.0 | 0.00 | 0.03 | 0.00 | 61 | 1018.1 |
| 20260503005611 | 69 | 0 | 0.0 | 1.0 | 0.00 | 0.03 | 0.00 | 61 | 1018.1 |
| 20260503005600 | 69 | 38 | 0.0 | 1.0 | 0.00 | 0.03 | 0.00 | 61 | 1018.1 |
| 20260503005511 | 70 | 292 | 0.0 | 1.0 | 0.00 | 0.03 | 0.00 | 60 | 1018.1 |
| 20260503005411 | 70 | 272 | 0.0 | 1.0 | 0.00 | 0.03 | 0.00 | 60 | 1018.1 |
| 20260503005308 | 70 | 0 | 0.0 | 1.0 | 0.00 | 0.03 | 0.00 | 60 | 1018.1 |
| 20260503005205 | 70 | 327 | 0.0 | 1.0 | 0.00 | 0.03 | 0.00 | 59 | 1018.1 |
| 20260503005106 | 70 | 336 | 0.0 | 1.0 | 0.00 | 0.03 | 0.00 | 59 | 1018.0 |
| 20260503005100 | 70 | 263 | 0.0 | 1.0 | 0.00 | 0.03 | 0.00 | 59 | 1018.0 |
| 20260503005005 | 70 | 16 | 0.0 | 1.0 | 0.00 | 0.03 | 0.00 | 59 | 1018.0 |
| 20260503004855 | 70 | 0 | 0.0 | 2.0 | 0.00 | 0.03 | 0.00 | 59 | 1018.0 |
| 20260503004756 | 70 | 36 | 0.0 | 2.0 | 0.00 | 0.04 | 0.00 | 59 | 1018.0 |
| 20260503004653 | 70 | 45 | 0.0 | 2.0 | 0.00 | 0.04 | 0.00 | 58 | 1018.0 |
| 20260503004601 | 71 | 20 | 0.0 | 2.0 | 0.00 | 0.04 | 0.00 | 59 | 1017.9 |
| 20260503004550 | 71 | 7 | 0.0 | 2.0 | 0.00 | 0.04 | 0.00 | 59 | 1017.9 |
| 20260503004445 | 71 | 39 | 0.0 | 2.0 | 0.00 | 0.04 | 0.00 | 59 | 1017.9 |
| 20260503004344 | 71 | 0 | 0.0 | 2.0 | 0.00 | 0.04 | 0.00 | 59 | 1017.9 |
| 20260503004244 | 71 | 0 | 0.0 | 2.0 | 0.00 | 0.04 | 0.00 | 59 | 1017.9 |
| 20260503004144 | 71 | 303 | 0.0 | 2.0 | 0.00 | 0.05 | 0.00 | 58 | 1017.9 |
| 20260503004044 | 71 | 0 | 0.0 | 2.0 | 0.00 | 0.05 | 0.00 | 58 | 1017.9 |
| 20260503003935 | 71 | 0 | 1.0 | 2.0 | 0.00 | 0.06 | 0.00 | 57 | 1017.8 |
| 20260503003835 | 71 | 299 | 1.0 | 2.0 | 0.00 | 0.06 | 0.00 | 57 | 1017.8 |
| 20260503003731 | 71 | 252 | 1.0 | 2.0 | 0.00 | 0.06 | 0.00 | 57 | 1017.8 |
| 20260503003632 | 71 | 0 | 1.0 | 2.0 | 0.00 | 0.07 | 0.00 | 57 | 1017.8 |
| 20260503003557 | 71 | 0 | 1.0 | 2.0 | 0.00 | 0.07 | 0.00 | 57 | 1017.8 |
| 20260503003532 | 72 | 30 | 1.0 | 2.0 | 0.00 | 0.07 | 0.00 | 56 | 1017.8 |
| 20260503003432 | 72 | 27 | 1.0 | 2.0 | 0.00 | 0.07 | 0.00 | 56 | 1017.8 |
| 20260503003332 | 72 | 298 | 1.0 | 2.0 | 0.00 | 0.08 | 0.00 | 56 | 1017.8 |
| 20260503003230 | 72 | 27 | 1.0 | 2.0 | 0.00 | 0.09 | 0.00 | 56 | 1017.7 |
| 20260503003130 | 72 | 27 | 1.0 | 2.0 | 0.00 | 0.10 | 0.00 | 56 | 1017.7 |
| 20260503003058 | 72 | 348 | 1.0 | 3.0 | 0.00 | 0.11 | 0.00 | 56 | 1017.7 |
| 20260503003030 | 72 | 11 | 1.0 | 3.0 | 0.00 | 0.11 | 0.00 | 55 | 1017.7 |
| 20260503002921 | 72 | 308 | 1.0 | 3.0 | 0.00 | 0.13 | 0.00 | 55 | 1017.7 |
| 20260503002821 | 72 | 61 | 1.0 | 3.0 | 0.00 | 0.13 | 0.00 | 56 | 1017.7 |
| 20260503002718 | 72 | 0 | 1.0 | 3.0 | 0.00 | 0.13 | 0.00 | 55 | 1017.7 |
| 20260503002618 | 72 | 297 | 1.0 | 3.0 | 0.00 | 0.14 | 0.00 | 55 | 1017.7 |
| 20260503002558 | 72 | 334 | 1.0 | 3.0 | 0.00 | 0.16 | 0.00 | 55 | 1017.7 |
| 20260503002509 | 73 | 306 | 1.0 | 3.0 | 0.00 | 0.16 | 0.00 | 55 | 1017.6 |
| 20260503002409 | 73 | 342 | 1.0 | 3.0 | 0.00 | 0.16 | 0.00 | 55 | 1017.6 |
| 20260503002316 | 73 | 20 | 1.0 | 3.0 | 0.00 | 0.17 | 0.00 | 54 | 1017.6 |
| 20260503002308 | 73 | 297 | 1.0 | 3.0 | 0.00 | 0.17 | 0.00 | 55 | 1017.6 |
| 20260503002209 | 73 | 90 | 1.0 | 3.0 | 0.00 | 0.17 | 0.00 | 54 | 1017.6 |
| 20260503002204 | 73 | 43 | 1.0 | 3.0 | 0.00 | 0.17 | 0.00 | 54 | 1017.6 |
| 20260503002002 | 73 | 60 | 1.0 | 3.0 | 0.00 | 0.17 | 0.00 | 55 | 1017.6 |
| 20260503001856 | 73 | 275 | 1.0 | 4.0 | 0.00 | 0.17 | 0.00 | 54 | 1017.6 |
| 20260503001753 | 73 | 83 | 1.0 | 6.0 | 0.00 | 0.18 | 0.00 | 54 | 1017.6 |
| 20260503001653 | 73 | 308 | 1.0 | 6.0 | 0.00 | 0.18 | 0.00 | 54 | 1017.6 |
| 20260503001553 | 73 | 287 | 1.0 | 6.0 | 0.00 | 0.18 | 0.00 | 54 | 1017.6 |
| 20260503001445 | 73 | 299 | 1.0 | 6.0 | 0.00 | 0.18 | 0.00 | 54 | 1017.6 |
| 20260503001345 | 74 | 14 | 2.0 | 6.0 | 0.00 | 0.18 | 0.00 | 54 | 1017.6 |
| 20260503001310 | 74 | 12 | 2.0 | 6.0 | 0.00 | 0.18 | 0.00 | 52 | 1017.6 |
| 20260503001243 | 74 | 269 | 2.0 | 6.0 | 0.00 | 0.18 | 0.00 | 52 | 1017.6 |
| 20260503001155 | 74 | 291 | 2.0 | 6.0 | 0.00 | 0.18 | 0.00 | 52 | 1017.6 |
| 20260503001041 | 74 | 332 | 2.0 | 6.0 | 0.00 | 0.18 | 0.00 | 52 | 1017.6 |
| 20260503000942 | 74 | 359 | 1.0 | 6.0 | 0.00 | 0.18 | 0.00 | 52 | 1017.6 |
| 20260503000840 | 74 | 35 | 2.0 | 5.0 | 0.00 | 0.18 | 0.00 | 52 | 1017.6 |
| 20260503000739 | 74 | 328 | 2.0 | 5.0 | 0.00 | 0.18 | 0.00 | 52 | 1017.6 |
| 20260503000636 | 74 | 358 | 2.0 | 5.0 | 0.00 | 0.18 | 0.00 | 52 | 1017.6 |
| 20260503000550 | 74 | 28 | 2.0 | 5.0 | 0.00 | 0.18 | 0.00 | 52 | 1017.6 |
| 20260503000530 | 74 | 1 | 2.0 | 5.0 | 0.00 | 0.18 | 0.00 | 52 | 1017.6 |
| 20260503000430 | 74 | 240 | 2.0 | 5.0 | 0.00 | 0.18 | 0.00 | 52 | 1017.6 |
| 20260503000327 | 74 | 59 | 2.0 | 5.0 | 0.00 | 0.18 | 0.00 | 52 | 1017.6 |
| 20260503000227 | 74 | 287 | 2.0 | 5.0 | 0.00 | 0.18 | 0.00 | 52 | 1017.6 |
| 20260503000127 | 74 | 336 | 2.0 | 5.0 | 0.00 | 0.18 | 0.00 | 52 | 1017.6 |
| 20260503000049 | 74 | 4 | 2.0 | 5.0 | 0.00 | 0.18 | 0.00 | 52 | 1017.6 |
| 20260503000024 | 74 | 16 | 2.0 | 5.0 | 0.00 | 0.18 | 0.00 | 52 | 1017.6 |
| 20260502235924 | 74 | 351 | 2.0 | 6.0 | 0.00 | 0.18 | 0.00 | 51 | 1017.5 |
| 20260502235824 | 74 | 1 | 2.0 | 6.0 | 0.00 | 0.18 | 0.00 | 51 | 1017.5 |
| 20260502235724 | 74 | 236 | 2.0 | 6.0 | 0.00 | 0.18 | 0.00 | 51 | 1017.5 |
| 20260502235624 | 75 | 5 | 2.0 | 6.0 | 0.00 | 0.18 | 0.00 | 51 | 1017.5 |
| 20260502235546 | 75 | 298 | 2.0 | 6.0 | 0.00 | 0.18 | 0.00 | 51 | 1017.5 |
| 20260502235524 | 75 | 2 | 2.0 | 6.0 | 0.00 | 0.18 | 0.00 | 51 | 1017.5 |
| 20260502235424 | 75 | 328 | 2.0 | 6.0 | 0.00 | 0.18 | 0.00 | 51 | 1017.5 |
| 20260502235321 | 75 | 53 | 2.0 | 6.0 | 0.00 | 0.18 | 0.00 | 51 | 1017.5 |
| 20260502235221 | 75 | 335 | 2.0 | 6.0 | 0.00 | 0.18 | 0.00 | 51 | 1017.5 |
| 20260502235121 | 75 | 330 | 2.0 | 6.0 | 0.00 | 0.18 | 0.00 | 51 | 1017.5 |
| 20260502235047 | 75 | 215 | 2.0 | 6.0 | 0.00 | 0.18 | 0.00 | 51 | 1017.5 |
| 20260502235021 | 75 | 54 | 2.0 | 6.0 | 0.00 | 0.18 | 0.00 | 51 | 1017.5 |
| 20260502234918 | 75 | 294 | 2.0 | 6.0 | 0.00 | 0.18 | 0.00 | 51 | 1017.4 |
| 20260502234815 | 75 | 275 | 2.0 | 6.0 | 0.00 | 0.18 | 0.00 | 51 | 1017.4 |
| 20260502234715 | 75 | 66 | 2.0 | 6.0 | 0.00 | 0.18 | 0.00 | 51 | 1017.4 |
| 20260502234615 | 75 | 19 | 2.0 | 6.0 | 0.00 | 0.18 | 0.00 | 50 | 1017.4 |
| 20260502234547 | 75 | 258 | 2.0 | 6.0 | 0.00 | 0.18 | 0.00 | 50 | 1017.4 |
| 20260502234516 | 75 | 350 | 2.0 | 6.0 | 0.00 | 0.18 | 0.00 | 50 | 1017.4 |
| 20260502234412 | 75 | 306 | 2.0 | 6.0 | 0.00 | 0.18 | 0.00 | 51 | 1017.4 |
| 20260502234318 | 75 | 317 | 2.0 | 7.0 | 0.00 | 0.18 | 0.00 | 51 | 1017.4 |
| 20260502234309 | 75 | 356 | 2.0 | 6.0 | 0.00 | 0.18 | 0.00 | 51 | 1017.4 |
| 20260502234209 | 75 | 276 | 2.0 | 6.0 | 0.00 | 0.18 | 0.00 | 51 | 1017.4 |
| 20260502234150 | 75 | 47 | 2.0 | 6.0 | 0.00 | 0.18 | 0.00 | 51 | 1017.4 |
| 20260502234003 | 75 | 242 | 2.0 | 9.0 | 0.00 | 0.18 | 0.00 | 51 | 1017.4 |
| 20260502233903 | 75 | 358 | 3.0 | 10.0 | 0.00 | 0.18 | 0.00 | 51 | 1017.4 |
| 20260502233809 | 75 | 18 | 3.0 | 10.0 | 0.00 | 0.18 | 0.00 | 50 | 1017.4 |
| 20260502233804 | 75 | 17 | 3.0 | 10.0 | 0.00 | 0.18 | 0.00 | 51 | 1017.4 |
| 20260502233703 | 75 | 299 | 3.0 | 10.0 | 0.00 | 0.18 | 0.00 | 50 | 1017.4 |
| 20260502233647 | 75 | 330 | 3.0 | 10.0 | 0.00 | 0.18 | 0.00 | 50 | 1017.4 |
| 20260502233500 | 75 | 329 | 3.0 | 10.0 | 0.00 | 0.18 | 0.00 | 50 | 1017.4 |
| 20260502233357 | 75 | 310 | 3.0 | 10.0 | 0.00 | 0.18 | 0.00 | 49 | 1017.4 |
| 20260502233257 | 75 | 323 | 3.0 | 10.0 | 0.00 | 0.19 | 0.00 | 50 | 1017.4 |
| 20260502233157 | 76 | 326 | 3.0 | 10.0 | 0.00 | 0.19 | 0.00 | 49 | 1017.4 |
| 20260502233057 | 76 | 59 | 3.0 | 10.0 | 0.00 | 0.19 | 0.00 | 49 | 1017.4 |
| 20260502233041 | 76 | 49 | 2.0 | 10.0 | 0.00 | 0.19 | 0.00 | 49 | 1017.4 |
| 20260502232954 | 76 | 40 | 2.0 | 10.0 | 0.00 | 0.19 | 0.00 | 49 | 1017.4 |
| 20260502232854 | 76 | 31 | 2.0 | 7.0 | 0.00 | 0.19 | 0.00 | 50 | 1017.4 |
| 20260502232755 | 76 | 43 | 2.0 | 6.0 | 0.00 | 0.19 | 0.00 | 50 | 1017.3 |
| 20260502232654 | 76 | 354 | 1.0 | 6.0 | 0.00 | 0.20 | 0.00 | 50 | 1017.3 |
| 20260502232554 | 76 | 335 | 1.0 | 6.0 | 0.00 | 0.20 | 0.00 | 51 | 1017.3 |
| 20260502232541 | 76 | 26 | 1.0 | 6.0 | 0.00 | 0.20 | 0.00 | 50 | 1017.3 |
| 20260502232454 | 76 | 295 | 2.0 | 6.0 | 0.00 | 0.20 | 0.00 | 50 | 1017.3 |
| 20260502232354 | 76 | 348 | 2.0 | 6.0 | 0.00 | 0.20 | 0.00 | 50 | 1017.3 |
| 20260502232308 | 76 | 330 | 2.0 | 7.0 | 0.00 | 0.20 | 0.00 | 50 | 1017.2 |
| 20260502232252 | 76 | 28 | 2.0 | 6.0 | 0.00 | 0.20 | 0.00 | 50 | 1017.3 |
| 20260502232152 | 76 | 308 | 2.0 | 6.0 | 0.00 | 0.20 | 0.00 | 51 | 1017.3 |
| 20260502232146 | 76 | 16 | 2.0 | 6.0 | 0.00 | 0.20 | 0.00 | 50 | 1017.3 |
| 20260502231949 | 76 | 292 | 2.0 | 7.0 | 0.00 | 0.20 | 0.00 | 50 | 1017.2 |
| 20260502231849 | 76 | 320 | 2.0 | 7.0 | 0.00 | 0.20 | 0.00 | 50 | 1017.2 |
| 20260502231745 | 76 | 189 | 2.0 | 7.0 | 0.00 | 0.20 | 0.00 | 50 | 1017.2 |
| 20260502231645 | 76 | 1 | 2.0 | 7.0 | 0.00 | 0.20 | 0.00 | 50 | 1017.2 |
| 20260502231546 | 76 | 15 | 2.0 | 7.0 | 0.00 | 0.20 | 0.00 | 50 | 1017.2 |
| 20260502231538 | 76 | 284 | 2.0 | 7.0 | 0.00 | 0.20 | 0.00 | 49 | 1017.1 |
| 20260502231446 | 76 | 341 | 2.0 | 7.0 | 0.00 | 0.20 | 0.00 | 49 | 1017.1 |
| 20260502231345 | 76 | 341 | 2.0 | 7.0 | 0.00 | 0.20 | 0.00 | 49 | 1017.1 |
| 20260502231244 | 76 | 311 | 2.0 | 8.0 | 0.00 | 0.20 | 0.00 | 49 | 1017.1 |
| 20260502231144 | 76 | 329 | 2.0 | 8.0 | 0.00 | 0.20 | 0.00 | 51 | 1017.1 |
| 20260502231044 | 76 | 26 | 2.0 | 8.0 | 0.00 | 0.20 | 0.00 | 50 | 1017.1 |
| 20260502231039 | 76 | 29 | 2.0 | 8.0 | 0.00 | 0.20 | 0.00 | 50 | 1017.1 |
| 20260502230943 | 76 | 267 | 2.0 | 8.0 | 0.00 | 0.20 | 0.00 | 50 | 1017.1 |
| 20260502230840 | 76 | 225 | 3.0 | 8.0 | 0.00 | 0.20 | 0.00 | 49 | 1017.1 |
| 20260502230739 | 76 | 263 | 2.0 | 8.0 | 0.00 | 0.20 | 0.00 | 49 | 1017.1 |
| 20260502230634 | 76 | 315 | 2.0 | 8.0 | 0.00 | 0.20 | 0.00 | 49 | 1017.1 |
| 20260502230538 | 76 | 351 | 2.0 | 8.0 | 0.00 | 0.20 | 0.00 | 49 | 1017.1 |
| 20260502230531 | 76 | 352 | 2.0 | 8.0 | 0.00 | 0.20 | 0.00 | 49 | 1017.1 |
| 20260502230416 | 76 | 52 | 2.0 | 8.0 | 0.00 | 0.20 | 0.00 | 50 | 1017.1 |
| 20260502230316 | 76 | 347 | 2.0 | 8.0 | 0.00 | 0.20 | 0.00 | 50 | 1017.1 |
| 20260502230216 | 76 | 17 | 2.0 | 8.0 | 0.00 | 0.20 | 0.00 | 50 | 1017.1 |
| 20260502230116 | 76 | 50 | 2.0 | 8.0 | 0.00 | 0.20 | 0.00 | 50 | 1017.1 |
| 20260502230038 | 76 | 20 | 2.0 | 8.0 | 0.00 | 0.20 | 0.00 | 51 | 1017.2 |
| 20260502230015 | 76 | 34 | 2.0 | 8.0 | 0.00 | 0.20 | 0.00 | 51 | 1017.2 |
| 20260502225915 | 76 | 88 | 2.0 | 8.0 | 0.00 | 0.20 | 0.00 | 51 | 1017.2 |
| 20260502225815 | 76 | 294 | 3.0 | 8.0 | 0.00 | 0.20 | 0.00 | 51 | 1017.2 |
| 20260502225713 | 76 | 328 | 3.0 | 8.0 | 0.00 | 0.20 | 0.00 | 51 | 1017.2 |
| 20260502225612 | 76 | 315 | 3.0 | 8.0 | 0.00 | 0.20 | 0.00 | 50 | 1017.2 |
| 20260502225536 | 76 | 286 | 3.0 | 8.0 | 0.00 | 0.20 | 0.00 | 49 | 1017.2 |
| 20260502225512 | 76 | 261 | 4.0 | 8.0 | 0.00 | 0.20 | 0.00 | 49 | 1017.2 |
| 20260502225412 | 76 | 333 | 4.0 | 8.0 | 0.00 | 0.21 | 0.00 | 49 | 1017.2 |
| 20260502225313 | 76 | 36 | 4.0 | 8.0 | 0.00 | 0.21 | 0.00 | 49 | 1017.2 |
| 20260502225213 | 76 | 18 | 4.0 | 8.0 | 0.00 | 0.22 | 0.00 | 50 | 1017.2 |
| 20260502225113 | 76 | 56 | 3.0 | 8.0 | 0.00 | 0.22 | 0.00 | 49 | 1017.2 |
| 20260502225035 | 76 | 30 | 3.0 | 8.0 | 0.00 | 0.22 | 0.00 | 49 | 1017.2 |
| 20260502225010 | 76 | 54 | 3.0 | 8.0 | 0.00 | 0.22 | 0.00 | 49 | 1017.2 |
| 20260502224910 | 76 | 37 | 3.0 | 8.0 | 0.00 | 0.22 | 0.00 | 49 | 1017.1 |
| 20260502224810 | 76 | 48 | 3.0 | 8.0 | 0.00 | 0.22 | 0.00 | 49 | 1017.1 |
| 20260502224711 | 76 | 301 | 3.0 | 8.0 | 0.00 | 0.22 | 0.00 | 51 | 1017.0 |
| 20260502224608 | 76 | 318 | 2.0 | 7.0 | 0.00 | 0.22 | 0.00 | 50 | 1017.1 |
| 20260502224533 | 76 | 282 | 2.0 | 7.0 | 0.00 | 0.22 | 0.00 | 50 | 1017.1 |
| 20260502224507 | 76 | 93 | 2.0 | 7.0 | 0.00 | 0.22 | 0.00 | 50 | 1017.1 |
| 20260502224404 | 76 | 307 | 2.0 | 7.0 | 0.00 | 0.22 | 0.00 | 50 | 1016.9 |
| 20260502224301 | 76 | 341 | 2.0 | 7.0 | 0.00 | 0.22 | 0.00 | 50 | 1017.1 |
| 20260502224201 | 76 | 318 | 2.0 | 7.0 | 0.00 | 0.22 | 0.00 | 50 | 1017.1 |
| 20260502224101 | 76 | 232 | 2.0 | 7.0 | 0.00 | 0.22 | 0.00 | 50 | 1017.1 |
| 20260502224030 | 76 | 308 | 2.0 | 7.0 | 0.00 | 0.22 | 0.00 | 50 | 1017.1 |
| 20260502224001 | 76 | 323 | 2.0 | 7.0 | 0.00 | 0.22 | 0.00 | 50 | 1017.1 |
| 20260502223901 | 76 | 295 | 2.0 | 7.0 | 0.00 | 0.22 | 0.00 | 50 | 1017.1 |
| 20260502223758 | 76 | 321 | 2.0 | 5.0 | 0.00 | 0.22 | 0.00 | 50 | 1017.1 |
| 20260502223703 | 76 | 350 | 2.0 | 7.0 | 0.00 | 0.22 | 0.00 | 50 | 1017.1 |
| 20260502223557 | 76 | 309 | 2.0 | 7.0 | 0.00 | 0.22 | 0.00 | 50 | 1017.1 |
| 20260502223529 | 76 | 303 | 2.0 | 9.0 | 0.00 | 0.22 | 0.00 | 50 | 1017.1 |
| 20260502223452 | 76 | 305 | 2.0 | 9.0 | 0.00 | 0.22 | 0.00 | 50 | 1017.1 |
| 20260502223353 | 76 | 15 | 2.0 | 9.0 | 0.00 | 0.22 | 0.00 | 50 | 1017.2 |
| 20260502223252 | 76 | 353 | 2.0 | 9.0 | 0.00 | 0.22 | 0.00 | 50 | 1017.2 |
| 20260502223152 | 76 | 324 | 2.0 | 9.0 | 0.00 | 0.22 | 0.00 | 50 | 1017.2 |
| 20260502223049 | 76 | 269 | 2.0 | 9.0 | 0.00 | 0.22 | 0.00 | 50 | 1017.1 |
| 20260502223024 | 76 | 251 | 2.0 | 9.0 | 0.00 | 0.22 | 0.00 | 49 | 1017.2 |
| 20260502222949 | 76 | 50 | 2.0 | 9.0 | 0.00 | 0.22 | 0.00 | 49 | 1017.2 |
| 20260502222849 | 76 | 341 | 2.0 | 9.0 | 0.00 | 0.22 | 0.00 | 50 | 1017.2 |
| 20260502222749 | 76 | 32 | 2.0 | 9.0 | 0.00 | 0.22 | 0.00 | 50 | 1017.2 |
| 20260502222646 | 76 | 92 | 2.0 | 9.0 | 0.00 | 0.22 | 0.00 | 49 | 1017.2 |
| 20260502222546 | 76 | 352 | 2.0 | 9.0 | 0.00 | 0.22 | 0.00 | 48 | 1017.1 |
| 20260502222524 | 76 | 324 | 2.0 | 9.0 | 0.00 | 0.22 | 0.00 | 49 | 1017.2 |
| 20260502222446 | 76 | 51 | 3.0 | 9.0 | 0.00 | 0.22 | 0.00 | 49 | 1017.2 |
| 20260502222346 | 76 | 64 | 3.0 | 9.0 | 0.00 | 0.22 | 0.00 | 49 | 1017.2 |
| 20260502222247 | 76 | 43 | 3.0 | 9.0 | 0.00 | 0.22 | 0.00 | 49 | 1017.2 |
| 20260502222147 | 76 | 50 | 4.0 | 9.0 | 0.00 | 0.22 | 0.00 | 49 | 1017.2 |
| 20260502222046 | 76 | 342 | 4.0 | 9.0 | 0.00 | 0.22 | 0.00 | 49 | 1017.1 |
| 20260502222021 | 76 | 305 | 4.0 | 9.0 | 0.00 | 0.22 | 0.00 | 50 | 1017.2 |
| 20260502221946 | 76 | 347 | 4.0 | 9.0 | 0.00 | 0.22 | 0.00 | 50 | 1017.2 |
| 20260502221846 | 76 | 350 | 4.0 | 11.0 | 0.00 | 0.23 | 0.00 | 49 | 1017.2 |
| 20260502221746 | 76 | 18 | 4.0 | 11.0 | 0.00 | 0.23 | 0.00 | 48 | 1017.2 |
| 20260502221647 | 76 | 337 | 4.0 | 11.0 | 0.00 | 0.23 | 0.00 | 48 | 1017.2 |
| 20260502221547 | 76 | 12 | 4.0 | 11.0 | 0.00 | 0.23 | 0.00 | 49 | 1017.2 |
| 20260502221515 | 76 | 31 | 4.0 | 11.0 | 0.00 | 0.23 | 0.00 | 48 | 1017.2 |
| 20260502221447 | 76 | 20 | 4.0 | 11.0 | 0.00 | 0.23 | 0.00 | 48 | 1017.2 |
| 20260502221347 | 76 | 32 | 4.0 | 11.0 | 0.00 | 0.23 | 0.00 | 49 | 1017.2 |
| 20260502221247 | 76 | 40 | 4.0 | 11.0 | 0.00 | 0.23 | 0.00 | 49 | 1017.2 |
| 20260502221145 | 76 | 260 | 3.0 | 11.0 | 0.00 | 0.23 | 0.00 | 48 | 1017.2 |
| 20260502221045 | 76 | 14 | 3.0 | 11.0 | 0.00 | 0.24 | 0.00 | 49 | 1017.1 |
| 20260502221015 | 76 | 350 | 3.0 | 11.0 | 0.00 | 0.24 | 0.00 | 49 | 1017.1 |
| 20260502220945 | 76 | 353 | 3.0 | 9.0 | 0.00 | 0.24 | 0.00 | 48 | 1017.2 |
| 20260502220845 | 76 | 347 | 3.0 | 8.0 | 0.00 | 0.24 | 0.00 | 49 | 1017.1 |
| 20260502220744 | 76 | 53 | 3.0 | 10.0 | 0.00 | 0.24 | 0.00 | 48 | 1017.1 |
| 20260502220641 | 76 | 34 | 3.0 | 10.0 | 0.00 | 0.24 | 0.00 | 50 | 1017.1 |
| 20260502220534 | 76 | 38 | 3.0 | 10.0 | 0.00 | 0.24 | 0.00 | 49 | 1017.1 |
| 20260502220515 | 76 | 43 | 3.0 | 11.0 | 0.00 | 0.24 | 0.00 | 49 | 1017.1 |
| 20260502220434 | 76 | 35 | 3.0 | 11.0 | 0.00 | 0.24 | 0.00 | 49 | 1017.1 |
| 20260502220334 | 76 | 264 | 4.0 | 11.0 | 0.00 | 0.24 | 0.00 | 49 | 1017.1 |
| 20260502220231 | 76 | 352 | 4.0 | 11.0 | 0.00 | 0.24 | 0.00 | 49 | 1017.1 |
| 20260502220129 | 76 | 316 | 4.0 | 11.0 | 0.00 | 0.24 | 0.00 | 49 | 1017.1 |
| 20260502220026 | 76 | 357 | 4.0 | 11.0 | 0.00 | 0.24 | 0.00 | 49 | 1017.1 |
| 20260502220013 | 76 | 41 | 4.0 | 11.0 | 0.00 | 0.24 | 0.00 | 49 | 1017.1 |
| 20260502215923 | 76 | 305 | 4.0 | 11.0 | 0.00 | 0.24 | 0.00 | 48 | 1017.2 |
| 20260502215816 | 76 | 56 | 4.0 | 11.0 | 0.00 | 0.24 | 0.00 | 48 | 1017.1 |
| 20260502215716 | 76 | 323 | 4.0 | 11.0 | 0.00 | 0.24 | 0.00 | 48 | 1017.1 |
| 20260502215616 | 76 | 348 | 3.0 | 11.0 | 0.00 | 0.24 | 0.00 | 48 | 1017.1 |
| 20260502215514 | 76 | 41 | 3.0 | 9.0 | 0.00 | 0.24 | 0.00 | 48 | 1017.1 |
| 20260502215507 | 76 | 2 | 3.0 | 9.0 | 0.00 | 0.24 | 0.00 | 48 | 1017.1 |
| 20260502215411 | 76 | 354 | 3.0 | 9.0 | 0.00 | 0.25 | 0.00 | 48 | 1017.1 |
| 20260502215308 | 76 | 358 | 3.0 | 9.0 | 0.00 | 0.26 | 0.00 | 49 | 1017.1 |
| 20260502215204 | 76 | 318 | 2.0 | 7.0 | 0.00 | 0.26 | 0.00 | 49 | 1017.1 |
| 20260502215059 | 76 | 338 | 2.0 | 7.0 | 0.00 | 0.26 | 0.00 | 49 | 1017.1 |
| 20260502215001 | 76 | 283 | 2.0 | 7.0 | 0.00 | 0.26 | 0.00 | 49 | 1017.1 |
| 20260502214956 | 76 | 275 | 3.0 | 7.0 | 0.00 | 0.26 | 0.00 | 49 | 1017.1 |
| 20260502214853 | 76 | 165 | 3.0 | 8.0 | 0.00 | 0.26 | 0.00 | 49 | 1017.1 |
| 20260502214752 | 76 | 326 | 3.0 | 8.0 | 0.00 | 0.26 | 0.00 | 49 | 1017.2 |
| 20260502214648 | 76 | 309 | 4.0 | 9.0 | 0.00 | 0.26 | 0.00 | 49 | 1017.2 |
| 20260502214558 | 76 | 347 | 4.0 | 9.0 | 0.00 | 0.26 | 0.00 | 48 | 1017.2 |
| 20260502214454 | 76 | 315 | 4.0 | 11.0 | 0.00 | 0.26 | 0.00 | 48 | 1017.2 |
| 20260502214441 | 76 | 349 | 4.0 | 11.0 | 0.00 | 0.26 | 0.00 | 48 | 1017.2 |
| 20260502214342 | 76 | 11 | 5.0 | 11.0 | 0.00 | 0.26 | 0.00 | 48 | 1017.2 |
| 20260502214241 | 76 | 17 | 5.0 | 11.0 | 0.00 | 0.26 | 0.00 | 48 | 1017.2 |
| 20260502214141 | 76 | 24 | 5.0 | 11.0 | 0.00 | 0.26 | 0.00 | 49 | 1017.2 |
| 20260502214035 | 76 | 306 | 5.0 | 11.0 | 0.00 | 0.26 | 0.00 | 49 | 1017.2 |
| 20260502213955 | 76 | 55 | 5.0 | 11.0 | 0.00 | 0.26 | 0.00 | 49 | 1017.2 |
| 20260502213935 | 76 | 51 | 4.0 | 11.0 | 0.00 | 0.26 | 0.00 | 48 | 1017.2 |
| 20260502213835 | 76 | 17 | 4.0 | 11.0 | 0.00 | 0.26 | 0.00 | 48 | 1017.2 |
| 20260502213735 | 76 | 324 | 4.0 | 11.0 | 0.00 | 0.26 | 0.00 | 48 | 1017.2 |
| 20260502213635 | 76 | 32 | 4.0 | 11.0 | 0.00 | 0.26 | 0.00 | 48 | 1017.1 |
| 20260502213535 | 76 | 26 | 4.0 | 10.0 | 0.00 | 0.26 | 0.00 | 49 | 1017.1 |
| 20260502213449 | 76 | 7 | 3.0 | 9.0 | 0.00 | 0.26 | 0.00 | 49 | 1017.1 |
| 20260502213435 | 76 | 224 | 4.0 | 9.0 | 0.00 | 0.26 | 0.00 | 49 | 1017.1 |
| 20260502213332 | 76 | 32 | 3.0 | 9.0 | 0.00 | 0.26 | 0.00 | 49 | 1017.2 |
| 20260502213232 | 76 | 295 | 4.0 | 9.0 | 0.00 | 0.26 | 0.00 | 49 | 1017.2 |
| 20260502213132 | 76 | 337 | 4.0 | 9.0 | 0.00 | 0.26 | 0.00 | 48 | 1017.2 |
| 20260502213032 | 76 | 67 | 4.0 | 9.0 | 0.00 | 0.26 | 0.00 | 49 | 1017.2 |
| 20260502212948 | 76 | 25 | 4.0 | 9.0 | 0.00 | 0.26 | 0.00 | 49 | 1017.2 |
| 20260502212929 | 76 | 352 | 4.0 | 9.0 | 0.00 | 0.26 | 0.00 | 49 | 1017.3 |
| 20260502212829 | 76 | 28 | 4.0 | 9.0 | 0.00 | 0.26 | 0.00 | 49 | 1017.3 |
| 20260502212726 | 76 | 49 | 4.0 | 9.0 | 0.00 | 0.26 | 0.00 | 47 | 1017.1 |
| 20260502212623 | 76 | 341 | 4.0 | 9.0 | 0.00 | 0.27 | 0.00 | 47 | 1017.1 |
| 20260502212521 | 76 | 332 | 4.0 | 11.0 | 0.00 | 0.27 | 0.00 | 47 | 1017.1 |
| 20260502212449 | 76 | 25 | 4.0 | 11.0 | 0.00 | 0.27 | 0.00 | 47 | 1017.1 |
| 20260502212420 | 76 | 34 | 3.0 | 11.0 | 0.00 | 0.27 | 0.00 | 48 | 1017.2 |
| 20260502212317 | 76 | 39 | 3.0 | 11.0 | 0.00 | 0.28 | 0.00 | 48 | 1017.2 |
| 20260502212217 | 76 | 309 | 3.0 | 11.0 | 0.00 | 0.29 | 0.00 | 48 | 1017.2 |
| 20260502212117 | 76 | 308 | 3.0 | 11.0 | 0.00 | 0.30 | 0.00 | 48 | 1017.2 |
| 20260502212017 | 76 | 354 | 3.0 | 11.0 | 0.00 | 0.31 | 0.00 | 50 | 1017.2 |
| 20260502211949 | 76 | 317 | 2.0 | 11.0 | 0.00 | 0.31 | 0.00 | 50 | 1017.2 |
| 20260502211917 | 76 | 340 | 2.0 | 11.0 | 0.00 | 0.31 | 0.00 | 50 | 1017.2 |
| 20260502211817 | 76 | 278 | 3.0 | 11.0 | 0.00 | 0.31 | 0.00 | 51 | 1017.3 |
| 20260502211716 | 76 | 25 | 2.0 | 6.0 | 0.00 | 0.35 | 0.00 | 52 | 1017.2 |
| 20260502211711 | 76 | 305 | 3.0 | 11.0 | 0.00 | 0.32 | 0.00 | 51 | 1017.3 |
| 20260502211611 | 76 | 275 | 3.0 | 11.0 | 0.00 | 0.33 | 0.00 | 51 | 1017.3 |
| 20260502211555 | 76 | 7 | 2.0 | 6.0 | 0.00 | 0.34 | 0.00 | 52 | 1017.2 |
| 20260502211412 | 76 | 342 | 2.0 | 8.0 | 0.00 | 0.35 | 0.00 | 51 | 1017.2 |
| 20260502211313 | 76 | 326 | 2.0 | 8.0 | 0.00 | 0.35 | 0.00 | 50 | 1017.2 |
| 20260502211212 | 76 | 157 | 2.0 | 8.0 | 0.00 | 0.35 | 0.00 | 51 | 1017.3 |
| 20260502211112 | 76 | 331 | 2.0 | 8.0 | 0.00 | 0.36 | 0.00 | 51 | 1017.3 |
| 20260502211009 | 76 | 350 | 3.0 | 8.0 | 0.00 | 0.37 | 0.00 | 51 | 1017.3 |
| 20260502210949 | 76 | 241 | 3.0 | 8.0 | 0.00 | 0.38 | 0.00 | 51 | 1017.3 |
| 20260502210908 | 75 | 10 | 3.0 | 8.0 | 0.00 | 0.38 | 0.00 | 52 | 1017.3 |
| 20260502210808 | 75 | 323 | 3.0 | 8.0 | 0.00 | 0.40 | 0.00 | 52 | 1017.3 |
| 20260502210708 | 75 | 326 | 3.0 | 8.0 | 0.00 | 0.42 | 0.00 | 52 | 1017.3 |
| 20260502210608 | 75 | 176 | 3.0 | 8.0 | 0.00 | 0.42 | 0.00 | 53 | 1017.4 |
| 20260502210506 | 75 | 330 | 3.0 | 8.0 | 0.00 | 0.42 | 0.00 | 51 | 1017.3 |
| 20260502210450 | 75 | 315 | 3.0 | 8.0 | 0.00 | 0.43 | 0.00 | 51 | 1017.3 |
| 20260502210356 | 75 | 300 | 3.0 | 8.0 | 0.00 | 0.43 | 0.00 | 49 | 1017.3 |
| 20260502210256 | 75 | 305 | 3.0 | 8.0 | 0.00 | 0.43 | 0.00 | 49 | 1017.3 |
| 20260502210153 | 75 | 311 | 3.0 | 8.0 | 0.00 | 0.43 | 0.00 | 49 | 1017.3 |
| 20260502210048 | 75 | 298 | 3.0 | 8.0 | 0.00 | 0.43 | 0.00 | 51 | 1017.4 |
| 20260502205949 | 75 | 317 | 2.0 | 8.0 | 0.00 | 0.43 | 0.00 | 51 | 1017.4 |
| 20260502205942 | 75 | 304 | 2.0 | 8.0 | 0.00 | 0.43 | 0.00 | 51 | 1017.4 |
| 20260502205838 | 75 | 310 | 2.0 | 6.0 | 0.00 | 0.43 | 0.00 | 50 | 1017.3 |
| 20260502205738 | 75 | 54 | 2.0 | 6.0 | 0.00 | 0.43 | 0.00 | 50 | 1017.4 |
| 20260502205708 | 75 | 342 | 3.0 | 9.0 | 0.00 | 0.44 | 0.00 | 50 | 1017.4 |
| 20260502205635 | 75 | 268 | 2.0 | 9.0 | 0.00 | 0.44 | 0.00 | 49 | 1017.4 |
| 20260502205555 | 75 | 312 | 3.0 | 9.0 | 0.00 | 0.44 | 0.00 | 50 | 1017.4 |
| 20260502205436 | 75 | 320 | 3.0 | 9.0 | 0.00 | 0.44 | 0.00 | 50 | 1017.4 |
| 20260502205427 | 75 | 347 | 2.0 | 9.0 | 0.00 | 0.46 | 0.00 | 52 | 1017.4 |
| 20260502205335 | 75 | 12 | 2.0 | 9.0 | 0.00 | 0.45 | 0.00 | 51 | 1017.4 |
| 20260502205309 | 75 | 342 | 2.0 | 9.0 | 0.00 | 0.46 | 0.00 | 51 | 1017.4 |
| 20260502205129 | 75 | 28 | 2.0 | 9.0 | 0.00 | 0.46 | 0.00 | 51 | 1017.3 |
| 20260502205052 | 75 | 340 | 2.0 | 9.0 | 0.00 | 0.46 | 0.00 | 52 | 1017.4 |
| 20260502204914 | 75 | 99 | 3.0 | 9.0 | 0.00 | 0.46 | 0.00 | 51 | 1017.4 |
| 20260502204814 | 75 | 256 | 3.0 | 9.0 | 0.00 | 0.46 | 0.00 | 51 | 1017.4 |
| 20260502204711 | 75 | 294 | 3.0 | 9.0 | 0.00 | 0.46 | 0.00 | 51 | 1017.4 |
| 20260502204608 | 75 | 320 | 3.0 | 8.0 | 0.00 | 0.46 | 0.00 | 52 | 1017.5 |
| 20260502204508 | 75 | 345 | 3.0 | 8.0 | 0.00 | 0.46 | 0.00 | 52 | 1017.4 |
| 20260502204447 | 75 | 291 | 3.0 | 8.0 | 0.00 | 0.46 | 0.00 | 52 | 1017.4 |
| 20260502204408 | 75 | 331 | 3.0 | 8.0 | 0.00 | 0.46 | 0.00 | 52 | 1017.4 |
| 20260502204303 | 75 | 230 | 3.0 | 8.0 | 0.00 | 0.47 | 0.00 | 52 | 1017.4 |
| 20260502204159 | 75 | 328 | 3.0 | 8.0 | 0.00 | 0.48 | 0.00 | 52 | 1017.4 |
| 20260502204056 | 75 | 27 | 3.0 | 9.0 | 0.00 | 0.48 | 0.00 | 51 | 1017.5 |
| 20260502203954 | 75 | 347 | 3.0 | 9.0 | 0.00 | 0.49 | 0.00 | 51 | 1017.5 |
| 20260502203946 | 75 | 338 | 3.0 | 9.0 | 0.00 | 0.49 | 0.00 | 52 | 1017.5 |
| 20260502203851 | 75 | 283 | 3.0 | 9.0 | 0.00 | 0.49 | 0.00 | 52 | 1017.5 |
| 20260502203751 | 75 | 60 | 3.0 | 10.0 | 0.00 | 0.49 | 0.00 | 50 | 1017.5 |
| 20260502203648 | 75 | 358 | 4.0 | 10.0 | 0.00 | 0.49 | 0.00 | 50 | 1017.5 |
| 20260502203548 | 75 | 356 | 4.0 | 10.0 | 0.00 | 0.49 | 0.00 | 50 | 1017.5 |
| 20260502203444 | 75 | 300 | 5.0 | 11.0 | 0.00 | 0.49 | 0.00 | 50 | 1017.5 |
| 20260502203438 | 75 | 304 | 5.0 | 11.0 | 0.00 | 0.49 | 0.00 | 50 | 1017.5 |
| 20260502203343 | 75 | 21 | 5.0 | 11.0 | 0.00 | 0.49 | 0.00 | 50 | 1017.5 |
| 20260502203240 | 75 | 302 | 5.0 | 11.0 | 0.00 | 0.49 | 0.00 | 50 | 1017.5 |
| 20260502203131 | 75 | 358 | 5.0 | 11.0 | 0.00 | 0.49 | 0.00 | 50 | 1017.6 |
| 20260502203027 | 75 | 31 | 5.0 | 11.0 | 0.00 | 0.49 | 0.00 | 50 | 1017.6 |
| 20260502202932 | 75 | 72 | 5.0 | 11.0 | 0.00 | 0.49 | 0.00 | 50 | 1017.6 |
| 20260502202924 | 75 | 39 | 5.0 | 11.0 | 0.00 | 0.49 | 0.00 | 50 | 1017.6 |
| 20260502202815 | 75 | 18 | 5.0 | 11.0 | 0.00 | 0.49 | 0.00 | 50 | 1017.6 |
| 20260502202715 | 75 | 27 | 5.0 | 11.0 | 0.00 | 0.49 | 0.00 | 51 | 1017.5 |
| 20260502202615 | 75 | 26 | 4.0 | 11.0 | 0.00 | 0.49 | 0.00 | 50 | 1017.5 |
| 20260502202512 | 75 | 23 | 4.0 | 11.0 | 0.00 | 0.49 | 0.00 | 50 | 1017.5 |
| 20260502202427 | 75 | 15 | 4.0 | 13.0 | 0.00 | 0.49 | 0.00 | 51 | 1017.6 |
| 20260502202412 | 75 | 332 | 4.0 | 13.0 | 0.00 | 0.49 | 0.00 | 51 | 1017.6 |
| 20260502202309 | 75 | 359 | 4.0 | 13.0 | 0.00 | 0.49 | 0.00 | 51 | 1017.7 |
| 20260502202205 | 75 | 352 | 4.0 | 13.0 | 0.00 | 0.50 | 0.00 | 50 | 1017.7 |
| 20260502202106 | 75 | 352 | 3.0 | 13.0 | 0.00 | 0.50 | 0.00 | 51 | 1017.7 |
| 20260502202003 | 75 | 57 | 3.0 | 13.0 | 0.00 | 0.50 | 0.00 | 51 | 1017.7 |
| 20260502201926 | 75 | 43 | 3.0 | 13.0 | 0.00 | 0.50 | 0.00 | 51 | 1017.8 |
| 20260502201903 | 75 | 341 | 3.0 | 13.0 | 0.00 | 0.50 | 0.00 | 51 | 1017.8 |
| 20260502201803 | 75 | 264 | 3.0 | 13.0 | 0.00 | 0.51 | 0.00 | 51 | 1017.8 |
| 20260502201703 | 75 | 284 | 3.0 | 13.0 | 0.00 | 0.51 | 0.00 | 51 | 1017.8 |
| 20260502201603 | 75 | 336 | 3.0 | 13.0 | 0.00 | 0.51 | 0.00 | 53 | 1017.8 |
| 20260502201503 | 75 | 7 | 3.0 | 13.0 | 0.00 | 0.51 | 0.00 | 53 | 1017.8 |
| 20260502201426 | 75 | 4 | 2.0 | 8.0 | 0.00 | 0.51 | 0.00 | 53 | 1017.8 |
| 20260502201403 | 75 | 77 | 2.0 | 8.0 | 0.00 | 0.51 | 0.00 | 53 | 1017.8 |
| 20260502201303 | 75 | 318 | 2.0 | 8.0 | 0.00 | 0.51 | 0.00 | 54 | 1017.8 |
| 20260502201203 | 75 | 351 | 3.0 | 8.0 | 0.00 | 0.51 | 0.00 | 53 | 1017.7 |
| 20260502201057 | 75 | 356 | 3.0 | 8.0 | 0.00 | 0.52 | 0.00 | 53 | 1017.8 |
| 20260502200957 | 75 | 291 | 3.0 | 8.0 | 0.00 | 0.52 | 0.00 | 52 | 1017.8 |
| 20260502200926 | 75 | 335 | 3.0 | 8.0 | 0.00 | 0.52 | 0.00 | 52 | 1017.8 |
| 20260502200858 | 75 | 126 | 3.0 | 8.0 | 0.00 | 0.52 | 0.00 | 52 | 1017.8 |
| 20260502200757 | 75 | 100 | 3.0 | 8.0 | 0.00 | 0.53 | 0.00 | 53 | 1017.7 |
| 20260502200652 | 75 | 278 | 2.0 | 8.0 | 0.00 | 0.54 | 0.00 | 53 | 1017.8 |
| 20260502200639 | 75 | 0 | 3.0 | 8.0 | 0.00 | 0.55 | 0.00 | 53 | 1017.8 |
| 20260502200552 | 75 | 159 | 2.0 | 8.0 | 0.00 | 0.55 | 0.00 | 53 | 1017.8 |
| 20260502200526 | 75 | 295 | 3.0 | 8.0 | 0.00 | 0.55 | 0.00 | 52 | 1017.8 |
| 20260502200351 | 75 | 342 | 3.0 | 8.0 | 0.00 | 0.55 | 0.00 | 53 | 1017.8 |
| 20260502200252 | 75 | 295 | 3.0 | 8.0 | 0.00 | 0.55 | 0.00 | 53 | 1017.8 |
| 20260502200152 | 75 | 348 | 3.0 | 8.0 | 0.00 | 0.55 | 0.00 | 53 | 1017.8 |
| 20260502200052 | 75 | 162 | 3.0 | 8.0 | 0.00 | 0.55 | 0.00 | 53 | 1017.8 |
| 20260502195952 | 74 | 305 | 3.0 | 8.0 | 0.00 | 0.55 | 0.00 | 54 | 1017.9 |
| 20260502195916 | 74 | 322 | 3.0 | 8.0 | 0.00 | 0.55 | 0.00 | 54 | 1017.9 |
| 20260502195852 | 74 | 269 | 3.0 | 8.0 | 0.00 | 0.55 | 0.00 | 54 | 1017.9 |
| 20260502195748 | 74 | 12 | 3.0 | 8.0 | 0.00 | 0.55 | 0.00 | 54 | 1017.8 |
| 20260502195649 | 74 | 349 | 3.0 | 8.0 | 0.00 | 0.55 | 0.00 | 52 | 1017.8 |
| 20260502195637 | 74 | 319 | 3.0 | 12.0 | 0.00 | 0.55 | 0.00 | 52 | 1017.9 |
| 20260502195549 | 74 | 37 | 3.0 | 12.0 | 0.00 | 0.55 | 0.00 | 52 | 1017.8 |
| 20260502195523 | 74 | 216 | 3.0 | 12.0 | 0.00 | 0.55 | 0.00 | 54 | 1018.0 |
| 20260502195349 | 74 | 353 | 3.0 | 12.0 | 0.00 | 0.55 | 0.00 | 52 | 1017.9 |
| 20260502195249 | 74 | 14 | 3.0 | 12.0 | 0.00 | 0.55 | 0.00 | 52 | 1017.9 |
| 20260502195149 | 74 | 338 | 3.0 | 12.0 | 0.00 | 0.55 | 0.00 | 52 | 1017.9 |
| 20260502195049 | 74 | 327 | 3.0 | 12.0 | 0.00 | 0.55 | 0.00 | 52 | 1017.9 |
| 20260502194947 | 74 | 283 | 4.0 | 12.0 | 0.00 | 0.55 | 0.00 | 54 | 1018.0 |
| 20260502194917 | 74 | 332 | 4.0 | 12.0 | 0.00 | 0.55 | 0.00 | 54 | 1018.0 |
| 20260502194847 | 74 | 3 | 4.0 | 12.0 | 0.00 | 0.55 | 0.00 | 53 | 1018.0 |
| 20260502194742 | 74 | 330 | 3.0 | 12.0 | 0.00 | 0.55 | 0.00 | 53 | 1018.0 |
| 20260502194639 | 74 | 1 | 3.0 | 12.0 | 0.00 | 0.55 | 0.00 | 56 | 1017.9 |
| 20260502194531 | 74 | 264 | 3.0 | 11.0 | 0.00 | 0.55 | 0.00 | 54 | 1018.0 |
| 20260502194430 | 74 | 325 | 3.0 | 11.0 | 0.00 | 0.56 | 0.00 | 54 | 1018.0 |
| 20260502194417 | 74 | 334 | 3.0 | 11.0 | 0.00 | 0.56 | 0.00 | 54 | 1018.0 |
| 20260502194328 | 74 | 327 | 3.0 | 11.0 | 0.00 | 0.56 | 0.00 | 54 | 1017.9 |
| 20260502194228 | 74 | 355 | 3.0 | 11.0 | 0.00 | 0.56 | 0.00 | 54 | 1017.9 |
| 20260502194128 | 74 | 313 | 3.0 | 11.0 | 0.00 | 0.56 | 0.00 | 54 | 1017.9 |
| 20260502194024 | 74 | 16 | 3.0 | 11.0 | 0.00 | 0.56 | 0.00 | 55 | 1018.0 |
| 20260502193925 | 74 | 302 | 3.0 | 9.0 | 0.00 | 0.56 | 0.00 | 54 | 1018.1 |
| 20260502193911 | 74 | 1 | 3.0 | 9.0 | 0.00 | 0.56 | 0.00 | 54 | 1018.1 |
| 20260502193825 | 74 | 294 | 3.0 | 9.0 | 0.00 | 0.56 | 0.00 | 55 | 1018.1 |
| 20260502193725 | 74 | 294 | 3.0 | 9.0 | 0.00 | 0.56 | 0.00 | 54 | 1018.2 |
| 20260502193622 | 74 | 290 | 3.0 | 9.0 | 0.00 | 0.57 | 0.00 | 56 | 1018.2 |
| 20260502193522 | 74 | 293 | 3.0 | 9.0 | 0.00 | 0.58 | 0.00 | 56 | 1018.2 |
| 20260502193422 | 74 | 252 | 3.0 | 9.0 | 0.00 | 0.58 | 0.00 | 56 | 1018.2 |
| 20260502193406 | 74 | 318 | 3.0 | 9.0 | 0.00 | 0.58 | 0.00 | 56 | 1018.2 |
| 20260502193322 | 74 | 330 | 3.0 | 9.0 | 0.00 | 0.59 | 0.00 | 55 | 1018.2 |
| 20260502193219 | 74 | 304 | 3.0 | 9.0 | 0.00 | 0.61 | 0.00 | 54 | 1018.2 |
| 20260502193116 | 74 | 39 | 3.0 | 9.0 | 0.00 | 0.62 | 0.00 | 54 | 1018.2 |
| 20260502193012 | 74 | 331 | 3.0 | 9.0 | 0.00 | 0.62 | 0.00 | 54 | 1018.2 |
| 20260502192910 | 74 | 0 | 3.0 | 9.0 | 0.00 | 0.64 | 0.00 | 55 | 1018.2 |
| 20260502192859 | 74 | 343 | 3.0 | 9.0 | 0.00 | 0.64 | 0.00 | 55 | 1018.2 |
| 20260502192810 | 74 | 25 | 3.0 | 9.0 | 0.00 | 0.64 | 0.00 | 54 | 1018.3 |
| 20260502192710 | 74 | 353 | 2.0 | 9.0 | 0.00 | 0.64 | 0.00 | 54 | 1018.4 |